Time,TemperatureF,DewpointF,PressureIn,WindDirection,WindDirectionDegrees,WindSpeedMPH,WindSpeedGustMPH,Humidity,HourlyPrecipIn,Conditions,Clouds,dailyrainin,SoftwareType,DateUTC
2014-01-19 00:00:00,16.4,13.7,29.91,SSE,158,1.2,3.5,89,0.00,,,0.00,WeatherDisplay:10.37,2014-01-19 05:00:00,
2014-01-19 00:01:00,16.4,14.0,29.91,SSE,158,0.0,5.0,89,0.00,,,0.00,weatherlink.com 1.10,2014-01-19 05:01:00,
2014-01-19 00:02:00,16.4,13.7,29.91,SE,143,0.9,2.3,89,0.00,,,0.00,WeatherDisplay:10.37,2014-01-19 05:02:00,
2014-01-19 00:05:00,16.4,13.7,29.91,ESE,113,2.4,3.5,89,0.00,,,0.00,WeatherDisplay:10.37,2014-01-19 05:05:00,
2014-01-19 00:06:00,16.4,13.7,29.91,ESE,113,1.1,3.5,89,0.00,,,0.00,WeatherDisplay:10.37,2014-01-19 05:06:00,
2014-01-19 00:08:00,16.4,13.7,29.91,SSE,161,1.2,3.0,89,0.00,,,0.00,WeatherDisplay:10.37,2014-01-19 05:08:00,
2014-01-19 00:09:00,16.4,13.7,29.91,SE,126,1.2,3.5,89,0.00,,,0.00,WeatherDisplay:10.37,2014-01-19 05:09:00,
2014-01-19 00:12:00,16.4,13.7,29.91,SE,137,0.0,1.2,89,0.00,,,0.00,WeatherDisplay:10.37,2014-01-19 05:12:00,
2014-01-19 00:13:00,16.4,13.7,29.91,ESE,109,0.7,2.3,89,0.00,,,0.00,WeatherDisplay:10.37,2014-01-19 05:13:00,
2014-01-19 00:14:00,16.4,13.7,29.91,ESE,109,0.2,1.2,89,0.00,,,0.00,WeatherDisplay:10.37,2014-01-19 05:14:00,
2014-01-19 00:15:00,16.4,13.7,29.91,SE,126,0.6,2.3,89,0.00,,,0.00,WeatherDisplay:10.37,2014-01-19 05:15:00,
2014-01-19 00:16:00,16.4,14.0,29.91,SE,125,2.0,3.0,89,0.00,,,0.00,weatherlink.com 1.10,2014-01-19 05:16:00,
2014-01-19 00:18:00,16.4,13.7,29.91,ESE,123,0.0,2.3,89,0.00,,,0.00,WeatherDisplay:10.37,2014-01-19 05:18:00,
2014-01-19 00:19:00,16.4,13.7,29.91,ESE,114,0.6,2.3,89,0.00,,,0.00,WeatherDisplay:10.37,2014-01-19 05:19:00,
2014-01-19 00:20:00,16.4,13.7,29.91,ESE,114,0.1,2.3,89,0.00,,,0.00,WeatherDisplay:10.37,2014-01-19 05:20:00,
2014-01-19 00:24:00,16.4,13.7,29.91,ESE,114,0.3,2.3,89,0.00,,,0.00,WeatherDisplay:10.37,2014-01-19 05:24:00,
2014-01-19 00:25:00,16.4,13.7,29.90,SE,140,0.1,2.3,89,0.00,,,0.00,WeatherDisplay:10.37,2014-01-19 05:25:00,
2014-01-19 00:28:00,16.5,13.8,29.90,SE,146,0.1,2.3,89,0.00,,,0.00,WeatherDisplay:10.37,2014-01-19 05:28:00,
2014-01-19 00:29:00,16.5,13.8,29.90,SE,146,0.0,0.0,89,0.00,,,0.00,WeatherDisplay:10.37,2014-01-19 05:29:00,
2014-01-19 00:30:00,16.5,13.8,29.90,SE,146,0.1,0.0,89,0.00,,,0.00,WeatherDisplay:10.37,2014-01-19 05:30:00,
2014-01-19 00:31:00,16.5,14.0,29.89,SE,146,0.0,2.0,89,0.00,,,0.00,weatherlink.com 1.10,2014-01-19 05:31:00,
2014-01-19 00:32:00,16.5,13.8,29.89,South,178,1.6,3.5,89,0.00,,,0.00,WeatherDisplay:10.37,2014-01-19 05:32:00,
2014-01-19 00:33:00,16.5,13.8,29.89,South,178,0.1,2.3,89,0.00,,,0.00,WeatherDisplay:10.37,2014-01-19 05:33:00,
2014-01-19 00:34:00,16.5,13.8,29.89,South,178,0.7,1.2,89,0.00,,,0.00,WeatherDisplay:10.37,2014-01-19 05:34:00,
2014-01-19 00:35:00,16.5,13.8,29.89,South,178,0.6,2.3,89,0.00,,,0.00,WeatherDisplay:10.37,2014-01-19 05:35:00,
2014-01-19 00:38:00,16.5,13.8,29.89,SSE,155,0.5,2.3,89,0.00,,,0.00,WeatherDisplay:10.37,2014-01-19 05:38:00,
2014-01-19 00:39:00,16.5,13.8,29.89,SSE,155,0.1,1.2,89,0.00,,,0.00,WeatherDisplay:10.37,2014-01-19 05:39:00,
2014-01-19 00:40:00,16.5,13.8,29.89,SSE,153,0.5,2.3,89,0.00,,,0.00,WeatherDisplay:10.37,2014-01-19 05:40:00,
2014-01-19 00:42:00,16.6,13.9,29.89,SE,125,3.4,3.4,89,0.00,CLR,,0.00,WeatherDisplay:10.37,2014-01-19 05:42:00,
2014-01-19 00:43:00,16.5,13.8,29.89,ESE,123,1.3,5.8,89,0.00,,,0.00,WeatherDisplay:10.37,2014-01-19 05:43:00,
2014-01-19 00:45:00,16.6,13.9,29.89,ESE,123,0.0,1.2,89,0.00,,,0.00,WeatherDisplay:10.37,2014-01-19 05:45:00,
2014-01-19 00:46:00,16.6,14.0,29.89,ESE,123,0.0,6.0,89,0.00,,,0.00,weatherlink.com 1.10,2014-01-19 05:46:00,
2014-01-19 00:48:00,16.6,13.9,29.89,South,187,1.8,4.0,89,0.00,,,0.00,WeatherDisplay:10.37,2014-01-19 05:48:00,
2014-01-19 00:49:00,16.6,13.9,29.89,South,169,0.6,1.2,89,0.00,,,0.00,WeatherDisplay:10.37,2014-01-19 05:49:00,
2014-01-19 00:50:00,16.6,13.9,29.89,SE,142,0.0,6.0,89,0.00,,,0.00,WeatherDisplay:10.37,2014-01-19 05:50:00,
2014-01-19 00:53:00,16.6,13.9,29.89,East,95,0.1,1.2,89,0.00,,,0.00,WeatherDisplay:10.37,2014-01-19 05:53:00,
2014-01-19 00:54:00,16.6,13.9,29.89,ESE,104,0.1,1.2,89,0.00,,,0.00,WeatherDisplay:10.37,2014-01-19 05:54:00,
2014-01-19 00:55:00,16.7,14.3,29.88,ESE,111,0.0,1.2,90,0.00,,,0.00,WeatherDisplay:10.37,2014-01-19 05:55:00,
2014-01-19 00:57:00,16.7,14.3,29.88,ESE,111,0.0,0.0,90,0.00,,,0.00,WeatherDisplay:10.37,2014-01-19 05:57:00,
2014-01-19 00:58:00,16.7,14.0,29.88,ESE,111,0.0,0.0,89,0.00,,,0.00,WeatherDisplay:10.37,2014-01-19 05:58:00,
2014-01-19 01:00:00,16.7,14.0,29.88,ESE,111,0.0,0.0,89,0.00,,,0.00,WeatherDisplay:10.37,2014-01-19 06:00:00,
2014-01-19 01:01:00,16.7,14.0,29.88,ESE,111,0.0,1.0,89,0.00,,,0.00,WeatherDisplay:10.37,2014-01-19 06:01:00,
2014-01-19 01:02:00,16.7,14.0,29.88,SE,136,0.1,2.3,89,0.00,,,0.00,WeatherDisplay:10.37,2014-01-19 06:02:00,
2014-01-19 01:03:00,16.7,14.3,29.88,SE,136,0.0,2.3,90,0.00,,,0.00,WeatherDisplay:10.37,2014-01-19 06:03:00,
2014-01-19 01:04:00,16.7,14.3,29.88,SE,136,0.4,1.0,90,0.00,,,0.00,WeatherDisplay:10.37,2014-01-19 06:04:00,
2014-01-19 01:06:00,16.8,14.4,29.88,SE,136,0.0,1.0,90,0.00,,,0.00,WeatherDisplay:10.37,2014-01-19 06:06:00,
2014-01-19 01:08:00,16.7,14.3,29.88,SE,135,1.0,2.0,90,0.00,,,0.00,WeatherDisplay:10.37,2014-01-19 06:08:00,
2014-01-19 01:09:00,16.8,14.1,29.87,SSE,154,0.3,2.3,89,0.00,,,0.00,WeatherDisplay:10.37,2014-01-19 06:09:00,
2014-01-19 01:11:00,16.7,14.0,29.87,SSE,153,0.1,1.2,89,0.00,,,0.00,WeatherDisplay:10.37,2014-01-19 06:11:00,
2014-01-19 01:13:00,16.7,14.0,29.87,SSE,154,0.0,0.0,89,0.00,,,0.00,WeatherDisplay:10.37,2014-01-19 06:13:00,
2014-01-19 01:15:00,16.7,14.3,29.87,East,97,1.9,3.5,90,0.00,,,0.00,WeatherDisplay:10.37,2014-01-19 06:15:00,
2014-01-19 01:17:00,16.8,14.1,29.87,SSE,157,0.7,2.0,89,0.00,,,0.00,WeatherDisplay:10.37,2014-01-19 06:17:00,
2014-01-19 01:18:00,16.8,14.1,29.87,SSE,149,1.9,3.5,89,0.00,,,0.00,WeatherDisplay:10.37,2014-01-19 06:18:00,
2014-01-19 01:20:00,16.7,14.0,29.87,SSE,149,0.2,1.0,89,0.00,,,0.00,WeatherDisplay:10.37,2014-01-19 06:20:00,
2014-01-19 01:22:00,16.7,14.0,29.87,SSE,149,0.0,1.2,89,0.00,,,0.00,WeatherDisplay:10.37,2014-01-19 06:22:00,
2014-01-19 01:23:00,16.7,14.3,29.87,SSE,149,0.0,1.2,90,0.00,,,0.00,WeatherDisplay:10.37,2014-01-19 06:23:00,
2014-01-19 01:25:00,16.7,14.3,29.87,SSE,149,0.0,0.0,90,0.00,,,0.00,WeatherDisplay:10.37,2014-01-19 06:25:00,
2014-01-19 01:26:00,16.7,14.0,29.87,SE,130,1.1,3.5,89,0.00,,,0.00,WeatherDisplay:10.37,2014-01-19 06:26:00,
2014-01-19 01:29:00,16.8,14.4,29.87,SE,131,0.4,2.0,90,0.00,,,0.00,WeatherDisplay:10.37,2014-01-19 06:29:00,
2014-01-19 01:30:00,16.8,14.4,29.87,SE,130,0.9,1.2,90,0.00,,,0.00,WeatherDisplay:10.37,2014-01-19 06:30:00,
2014-01-19 01:33:00,16.8,14.4,29.87,South,180,1.0,2.3,90,0.00,,,0.00,WeatherDisplay:10.37,2014-01-19 06:33:00,
2014-01-19 01:35:00,16.8,14.1,29.87,South,180,0.1,1.2,89,0.00,,,0.00,WeatherDisplay:10.37,2014-01-19 06:35:00,
2014-01-19 01:37:00,16.8,14.1,29.87,SSE,167,0.2,2.0,89,0.00,,,0.00,WeatherDisplay:10.37,2014-01-19 06:37:00,
2014-01-19 01:38:00,16.8,14.4,29.87,SE,136,1.6,3.5,90,0.00,,,0.00,WeatherDisplay:10.37,2014-01-19 06:38:00,
2014-01-19 01:39:00,16.8,14.4,29.87,SSE,150,2.4,3.5,90,0.00,,,0.00,WeatherDisplay:10.37,2014-01-19 06:39:00,
2014-01-19 01:41:00,16.8,14.4,29.86,SSE,150,0.2,1.2,90,0.00,,,0.00,WeatherDisplay:10.37,2014-01-19 06:41:00,
2014-01-19 01:42:00,16.8,14.4,29.86,SSE,150,0.0,0.0,90,0.00,,,0.00,WeatherDisplay:10.37,2014-01-19 06:42:00,
2014-01-19 01:44:00,16.8,14.1,29.86,SSE,150,0.1,1.2,89,0.00,,,0.00,WeatherDisplay:10.37,2014-01-19 06:44:00,
2014-01-19 01:45:00,16.8,14.1,29.86,SSE,150,0.0,1.2,89,0.00,,,0.00,WeatherDisplay:10.37,2014-01-19 06:45:00,
2014-01-19 01:46:00,16.8,14.4,29.86,SSE,150,0.0,0.0,90,0.00,,,0.00,WeatherDisplay:10.37,2014-01-19 06:46:00,
2014-01-19 01:47:00,16.9,15.0,29.86,SSE,150,0.0,4.0,90,0.00,,,0.00,weatherlink.com 1.10,2014-01-19 06:47:00,
2014-01-19 01:50:00,16.9,14.5,29.87,SSE,150,0.0,0.0,90,0.00,,,0.00,WeatherDisplay:10.37,2014-01-19 06:50:00,
2014-01-19 01:51:00,16.9,14.5,29.87,SSE,150,0.0,2.3,90,0.00,,,0.00,WeatherDisplay:10.37,2014-01-19 06:51:00,
2014-01-19 01:52:00,16.9,14.5,29.87,SSE,150,0.0,1.2,90,0.00,,,0.00,WeatherDisplay:10.37,2014-01-19 06:52:00,
2014-01-19 01:53:00,16.9,14.5,29.87,SSE,150,0.0,1.2,90,0.00,,,0.00,WeatherDisplay:10.37,2014-01-19 06:53:00,
2014-01-19 01:55:00,16.9,14.5,29.87,SSE,150,0.0,0.0,90,0.00,,,0.00,WeatherDisplay:10.37,2014-01-19 06:55:00,
2014-01-19 01:57:00,16.9,14.5,29.87,SSE,150,0.6,1.2,90,0.00,,,0.00,WeatherDisplay:10.37,2014-01-19 06:57:00,
2014-01-19 01:58:00,17.0,14.6,29.87,SSE,150,0.0,2.3,90,0.00,,,0.00,WeatherDisplay:10.37,2014-01-19 06:58:00,
2014-01-19 01:59:00,17.0,14.6,29.87,SSE,150,0.1,1.2,90,0.00,,,0.00,WeatherDisplay:10.37,2014-01-19 06:59:00,
2014-01-19 02:00:00,16.9,14.5,29.87,SSE,150,0.0,2.0,90,0.00,,,0.00,WeatherDisplay:10.37,2014-01-19 07:00:00,
2014-01-19 02:01:00,16.9,14.5,29.87,SSE,149,0.0,1.2,90,0.00,,,0.00,WeatherDisplay:10.37,2014-01-19 07:01:00,
2014-01-19 02:03:00,16.9,14.5,29.87,SSE,149,0.0,0.0,90,0.00,,,0.00,WeatherDisplay:10.37,2014-01-19 07:03:00,
2014-01-19 02:05:00,17.0,14.6,29.87,SSE,149,0.0,0.0,90,0.00,,,0.00,WeatherDisplay:10.37,2014-01-19 07:05:00,
2014-01-19 02:07:00,16.9,14.5,29.87,SSE,149,0.0,0.0,90,0.00,,,0.00,WeatherDisplay:10.37,2014-01-19 07:07:00,
2014-01-19 02:08:00,16.9,14.5,29.87,SSE,149,0.0,0.0,90,0.00,,,0.00,WeatherDisplay:10.37,2014-01-19 07:08:00,
2014-01-19 02:10:00,17.0,14.6,29.87,SSE,149,0.2,0.0,90,0.00,,,0.00,WeatherDisplay:10.37,2014-01-19 07:10:00,
2014-01-19 02:13:00,16.9,14.5,29.87,SSE,149,0.0,0.0,90,0.00,,,0.00,WeatherDisplay:10.37,2014-01-19 07:13:00,
2014-01-19 02:14:00,16.9,14.5,29.87,SSE,148,0.2,1.2,90,0.00,,,0.00,WeatherDisplay:10.37,2014-01-19 07:14:00,
2014-01-19 02:15:00,16.9,14.5,29.87,SSE,148,0.5,1.2,90,0.00,,,0.00,WeatherDisplay:10.37,2014-01-19 07:15:00,
2014-01-19 02:16:00,16.9,14.5,29.87,SSE,148,0.0,0.0,90,0.00,,,0.00,WeatherDisplay:10.37,2014-01-19 07:16:00,
2014-01-19 02:19:00,17.0,14.6,29.87,SSE,148,0.0,0.0,90,0.00,,,0.00,WeatherDisplay:10.37,2014-01-19 07:19:00,
2014-01-19 02:20:00,16.9,14.5,29.87,SSE,148,0.0,0.0,90,0.00,,,0.00,WeatherDisplay:10.37,2014-01-19 07:20:00,
2014-01-19 02:21:00,17.0,14.6,29.87,SSE,148,0.0,0.0,90,0.00,,,0.00,WeatherDisplay:10.37,2014-01-19 07:21:00,
2014-01-19 02:22:00,17.0,14.6,29.87,SSE,148,0.0,0.0,90,0.00,,,0.00,WeatherDisplay:10.37,2014-01-19 07:22:00,
2014-01-19 02:25:00,17.0,14.6,29.87,SSE,148,0.0,0.0,90,0.00,,,0.00,WeatherDisplay:10.37,2014-01-19 07:25:00,
2014-01-19 02:26:00,17.0,14.6,29.87,SSE,148,0.0,0.0,90,0.00,,,0.00,WeatherDisplay:10.37,2014-01-19 07:26:00,
2014-01-19 02:28:00,17.0,14.6,29.86,SE,146,1.1,3.5,90,0.00,,,0.00,WeatherDisplay:10.37,2014-01-19 07:28:00,
2014-01-19 02:32:00,17.0,14.6,29.87,SSE,154,0.6,2.3,90,0.00,,,0.00,WeatherDisplay:10.37,2014-01-19 07:32:00,
2014-01-19 02:33:00,17.0,14.6,29.87,SSE,154,0.0,0.0,90,0.00,,,0.00,WeatherDisplay:10.37,2014-01-19 07:33:00,
2014-01-19 02:34:00,17.0,14.6,29.87,SSE,154,0.0,0.0,90,0.00,,,0.00,WeatherDisplay:10.37,2014-01-19 07:34:00,
2014-01-19 02:35:00,17.0,14.6,29.87,SSE,154,0.0,0.0,90,0.00,,,0.00,WeatherDisplay:10.37,2014-01-19 07:35:00,
2014-01-19 02:37:00,17.0,14.6,29.86,SSE,154,0.0,0.0,90,0.00,,,0.00,WeatherDisplay:10.37,2014-01-19 07:37:00,
2014-01-19 02:40:00,17.1,14.7,29.86,SSE,154,0.2,1.2,90,0.00,,,0.00,WeatherDisplay:10.37,2014-01-19 07:40:00,
2014-01-19 02:42:00,17.1,14.7,29.86,SSE,154,0.0,1.2,90,0.00,,,0.00,WeatherDisplay:10.37,2014-01-19 07:42:00,
2014-01-19 02:43:00,17.1,14.7,29.86,SSE,154,0.0,0.0,90,0.00,,,0.00,WeatherDisplay:10.37,2014-01-19 07:43:00,
2014-01-19 02:45:00,17.1,14.7,29.86,SSE,154,0.0,0.0,90,0.00,,,0.00,WeatherDisplay:10.37,2014-01-19 07:45:00,
2014-01-19 02:46:00,17.1,14.7,29.86,SSE,154,0.0,0.0,90,0.00,,,0.00,WeatherDisplay:10.37,2014-01-19 07:46:00,
2014-01-19 02:47:00,17.1,14.7,29.86,SSE,153,0.1,0.0,90,0.00,,,0.00,WeatherDisplay:10.37,2014-01-19 07:47:00,
2014-01-19 02:49:00,17.1,14.7,29.86,SE,140,0.5,2.3,90,0.00,,,0.00,WeatherDisplay:10.37,2014-01-19 07:49:00,
2014-01-19 02:51:00,17.1,14.7,29.86,SE,139,0.1,1.2,90,0.00,,,0.00,WeatherDisplay:10.37,2014-01-19 07:51:00,
2014-01-19 02:52:00,17.1,14.7,29.86,SE,139,0.2,1.2,90,0.00,,,0.00,WeatherDisplay:10.37,2014-01-19 07:52:00,
2014-01-19 02:53:00,17.1,14.7,29.86,SE,139,0.0,1.2,90,0.00,,,0.00,WeatherDisplay:10.37,2014-01-19 07:53:00,
2014-01-19 02:54:00,17.1,14.7,29.86,SE,139,0.2,1.2,90,0.00,,,0.00,WeatherDisplay:10.37,2014-01-19 07:54:00,
2014-01-19 02:57:00,17.2,14.8,29.86,SE,139,0.0,0.0,90,0.00,,,0.00,WeatherDisplay:10.37,2014-01-19 07:57:00,
2014-01-19 02:58:00,17.1,14.7,29.86,SE,139,0.1,1.2,90,0.00,,,0.00,WeatherDisplay:10.37,2014-01-19 07:58:00,
2014-01-19 02:59:00,17.1,14.7,29.86,SE,138,0.6,1.2,90,0.00,,,0.00,WeatherDisplay:10.37,2014-01-19 07:59:00,
2014-01-19 03:03:00,17.1,14.7,29.86,SE,138,0.0,1.2,90,0.00,,,0.00,WeatherDisplay:10.37,2014-01-19 08:03:00,
2014-01-19 03:05:00,17.2,14.8,29.86,SE,138,0.0,0.0,90,0.00,,,0.00,WeatherDisplay:10.37,2014-01-19 08:05:00,
2014-01-19 03:06:00,17.2,14.8,29.86,SE,138,0.0,0.0,90,0.00,,,0.00,WeatherDisplay:10.37,2014-01-19 08:06:00,
2014-01-19 03:07:00,17.2,14.8,29.86,SE,138,0.0,1.0,90,0.00,,,0.00,WeatherDisplay:10.37,2014-01-19 08:07:00,
2014-01-19 03:08:00,17.2,14.8,29.86,SE,138,0.1,1.2,90,0.00,,,0.00,WeatherDisplay:10.37,2014-01-19 08:08:00,
2014-01-19 03:10:00,17.2,14.8,29.85,SE,137,0.0,0.0,90,0.00,,,0.00,WeatherDisplay:10.37,2014-01-19 08:10:00,
2014-01-19 03:11:00,17.2,14.8,29.85,SE,136,0.1,0.0,90,0.00,,,0.00,WeatherDisplay:10.37,2014-01-19 08:11:00,
2014-01-19 03:12:00,17.2,14.8,29.85,SE,136,0.1,0.0,90,0.00,,,0.00,WeatherDisplay:10.37,2014-01-19 08:12:00,
2014-01-19 03:13:00,17.2,14.8,29.85,ESE,107,0.8,2.3,90,0.00,,,0.00,WeatherDisplay:10.37,2014-01-19 08:13:00,
2014-01-19 03:14:00,17.2,14.8,29.85,ESE,107,1.0,2.3,90,0.00,,,0.00,WeatherDisplay:10.37,2014-01-19 08:14:00,
2014-01-19 03:17:00,17.2,14.8,29.85,ESE,107,0.0,1.2,90,0.00,,,0.00,WeatherDisplay:10.37,2014-01-19 08:17:00,
2014-01-19 03:18:00,17.3,14.9,29.85,ESE,107,0.0,0.0,90,0.00,,,0.00,WeatherDisplay:10.37,2014-01-19 08:18:00,
2014-01-19 03:20:00,17.3,14.9,29.85,ESE,107,0.2,0.0,90,0.00,,,0.00,WeatherDisplay:10.37,2014-01-19 08:20:00,
2014-01-19 03:22:00,17.3,14.9,29.85,ESE,107,0.0,0.0,90,0.00,,,0.00,WeatherDisplay:10.37,2014-01-19 08:22:00,
2014-01-19 03:23:00,17.3,14.9,29.85,ESE,107,0.0,0.0,90,0.00,,,0.00,WeatherDisplay:10.37,2014-01-19 08:23:00,
2014-01-19 03:27:00,17.3,14.9,29.84,ESE,108,0.0,1.2,90,0.00,,,0.00,WeatherDisplay:10.37,2014-01-19 08:27:00,
2014-01-19 03:28:00,17.3,14.9,29.84,ESE,108,0.0,0.0,90,0.00,,,0.00,WeatherDisplay:10.37,2014-01-19 08:28:00,
2014-01-19 03:29:00,17.3,14.9,29.84,ESE,108,0.0,0.0,90,0.00,,,0.00,WeatherDisplay:10.37,2014-01-19 08:29:00,
2014-01-19 03:30:00,17.3,14.9,29.85,ESE,108,0.0,0.0,90,0.00,,,0.00,WeatherDisplay:10.37,2014-01-19 08:30:00,
2014-01-19 03:33:00,17.3,14.9,29.84,ESE,107,1.3,2.3,90,0.00,,,0.00,WeatherDisplay:10.37,2014-01-19 08:33:00,
2014-01-19 03:34:00,17.4,15.0,29.84,SSE,156,1.2,3.5,90,0.00,,,0.00,WeatherDisplay:10.37,2014-01-19 08:34:00,
2014-01-19 03:35:00,17.3,14.9,29.84,SSE,155,1.1,3.5,90,0.00,,,0.00,WeatherDisplay:10.37,2014-01-19 08:35:00,
2014-01-19 03:38:00,17.3,14.9,29.84,SSE,155,0.1,1.2,90,0.00,CLR,,0.00,WeatherDisplay:10.37,2014-01-19 08:38:00,
2014-01-19 03:40:00,17.4,15.0,29.84,SSE,155,0.0,0.0,90,0.00,,,0.00,WeatherDisplay:10.37,2014-01-19 08:40:00,
2014-01-19 03:41:00,17.4,15.0,29.84,SSE,155,0.1,1.2,90,0.00,,,0.00,WeatherDisplay:10.37,2014-01-19 08:41:00,
2014-01-19 03:42:00,17.3,14.9,29.84,SSE,155,0.1,1.2,90,0.00,,,0.00,WeatherDisplay:10.37,2014-01-19 08:42:00,
2014-01-19 03:45:00,17.4,15.0,29.84,SSE,155,0.0,0.0,90,0.00,,,0.00,WeatherDisplay:10.37,2014-01-19 08:45:00,
2014-01-19 03:47:00,17.4,15.0,29.84,SSE,155,0.0,0.0,90,0.00,,,0.00,WeatherDisplay:10.37,2014-01-19 08:47:00,
2014-01-19 03:48:00,17.4,15.0,29.83,SSE,155,0.0,0.0,90,0.00,,,0.00,WeatherDisplay:10.37,2014-01-19 08:48:00,
2014-01-19 03:49:00,17.4,15.0,29.84,SSE,155,0.0,0.0,90,0.00,,,0.00,WeatherDisplay:10.37,2014-01-19 08:49:00,
2014-01-19 03:50:00,17.4,15.0,29.83,SSE,155,0.0,0.0,90,0.00,,,0.00,WeatherDisplay:10.37,2014-01-19 08:50:00,
2014-01-19 03:52:00,17.4,15.0,29.83,SSE,155,0.2,2.3,90,0.00,,,0.00,WeatherDisplay:10.37,2014-01-19 08:52:00,
2014-01-19 03:53:00,17.4,15.0,29.83,SSE,155,0.1,2.3,90,0.00,,,0.00,WeatherDisplay:10.37,2014-01-19 08:53:00,
2014-01-19 03:56:00,17.4,15.0,29.83,SSE,155,0.0,0.0,90,0.00,,,0.00,WeatherDisplay:10.37,2014-01-19 08:56:00,
2014-01-19 03:57:00,17.4,15.0,29.83,SE,144,0.0,1.2,90,0.00,,,0.00,WeatherDisplay:10.37,2014-01-19 08:57:00,
2014-01-19 03:58:00,17.4,15.0,29.83,SE,144,0.0,0.0,90,0.00,,,0.00,WeatherDisplay:10.37,2014-01-19 08:58:00,
2014-01-19 03:59:00,17.4,15.0,29.83,SE,144,0.1,1.2,90,0.00,,,0.00,WeatherDisplay:10.37,2014-01-19 08:59:00,
2014-01-19 04:00:00,17.4,15.0,29.83,SE,144,0.3,1.2,90,0.00,,,0.00,WeatherDisplay:10.37,2014-01-19 09:00:00,
2014-01-19 04:02:00,17.4,15.0,29.83,SE,144,0.0,0.0,90,0.00,,,0.00,WeatherDisplay:10.37,2014-01-19 09:02:00,
2014-01-19 04:04:00,17.4,15.0,29.83,SE,144,0.0,0.0,90,0.00,,,0.00,WeatherDisplay:10.37,2014-01-19 09:04:00,
2014-01-19 04:05:00,17.4,15.0,29.83,SE,144,0.0,0.0,90,0.00,,,0.00,WeatherDisplay:10.37,2014-01-19 09:05:00,
2014-01-19 04:06:00,17.4,15.0,29.83,SE,144,0.0,0.0,90,0.00,,,0.00,WeatherDisplay:10.37,2014-01-19 09:06:00,
2014-01-19 04:08:00,17.4,15.0,29.83,SE,144,0.1,1.0,90,0.00,,,0.00,WeatherDisplay:10.37,2014-01-19 09:08:00,
2014-01-19 04:10:00,17.4,15.0,29.83,SE,144,0.3,2.3,90,0.00,,,0.00,WeatherDisplay:10.37,2014-01-19 09:10:00,
2014-01-19 04:13:00,17.4,15.0,29.83,SE,144,0.0,0.0,90,0.00,,,0.00,WeatherDisplay:10.37,2014-01-19 09:13:00,
2014-01-19 04:14:00,17.4,15.0,29.83,SE,144,0.0,0.0,90,0.00,,,0.00,WeatherDisplay:10.37,2014-01-19 09:14:00,
2014-01-19 04:15:00,17.4,15.0,29.83,SE,144,0.0,0.0,90,0.00,,,0.00,WeatherDisplay:10.37,2014-01-19 09:15:00,
2014-01-19 04:16:00,17.4,15.0,29.83,SE,144,0.0,1.0,90,0.00,,,0.00,WeatherDisplay:10.37,2014-01-19 09:16:00,
2014-01-19 04:17:00,17.4,15.0,29.83,SE,144,0.3,0.0,90,0.00,,,0.00,WeatherDisplay:10.37,2014-01-19 09:17:00,
2014-01-19 04:18:00,17.4,15.0,29.83,SE,144,0.0,0.0,90,0.00,,,0.00,WeatherDisplay:10.37,2014-01-19 09:18:00,
2014-01-19 04:21:00,17.4,15.0,29.83,SE,144,0.0,0.0,90,0.00,,,0.00,WeatherDisplay:10.37,2014-01-19 09:21:00,
2014-01-19 04:22:00,17.4,15.0,29.82,SE,144,0.0,0.0,90,0.00,,,0.00,WeatherDisplay:10.37,2014-01-19 09:22:00,
2014-01-19 04:23:00,17.4,15.0,29.83,SE,144,0.0,0.0,90,0.00,,,0.00,WeatherDisplay:10.37,2014-01-19 09:23:00,
2014-01-19 04:27:00,17.5,15.1,29.82,SE,144,0.0,0.0,90,0.00,,,0.00,WeatherDisplay:10.37,2014-01-19 09:27:00,
2014-01-19 04:28:00,17.5,15.1,29.82,SE,144,0.0,0.0,90,0.00,,,0.00,WeatherDisplay:10.37,2014-01-19 09:28:00,
2014-01-19 04:29:00,17.5,15.1,29.82,SE,144,0.0,0.0,90,0.00,,,0.00,WeatherDisplay:10.37,2014-01-19 09:29:00,
2014-01-19 04:30:00,17.5,15.1,29.82,SE,144,0.0,0.0,90,0.00,,,0.00,WeatherDisplay:10.37,2014-01-19 09:30:00,
2014-01-19 04:34:00,17.5,15.1,29.81,SE,144,0.1,1.2,90,0.00,,,0.00,WeatherDisplay:10.37,2014-01-19 09:34:00,
2014-01-19 04:35:00,17.5,15.1,29.81,SE,144,0.4,1.2,90,0.00,,,0.00,WeatherDisplay:10.37,2014-01-19 09:35:00,
2014-01-19 04:36:00,17.5,15.1,29.81,SE,144,0.1,1.2,90,0.00,CLR,,0.00,WeatherDisplay:10.37,2014-01-19 09:36:00,
2014-01-19 04:39:00,17.5,15.1,29.81,SE,144,0.0,0.0,90,0.00,,,0.00,WeatherDisplay:10.37,2014-01-19 09:39:00,
2014-01-19 04:40:00,17.5,15.1,29.81,SE,144,0.2,1.2,90,0.00,,,0.00,WeatherDisplay:10.37,2014-01-19 09:40:00,
2014-01-19 04:41:00,17.5,15.1,29.81,SE,143,0.0,1.2,90,0.00,,,0.00,WeatherDisplay:10.37,2014-01-19 09:41:00,
2014-01-19 04:42:00,17.5,15.1,29.81,SE,143,0.0,1.2,90,0.00,,,0.00,WeatherDisplay:10.37,2014-01-19 09:42:00,
2014-01-19 04:43:00,17.5,15.1,29.81,SE,144,0.0,1.2,90,0.00,,,0.00,WeatherDisplay:10.37,2014-01-19 09:43:00,
2014-01-19 04:47:00,17.5,15.1,29.81,SE,144,0.0,0.0,90,0.00,,,0.00,WeatherDisplay:10.37,2014-01-19 09:47:00,
2014-01-19 04:48:00,17.5,15.1,29.81,SE,144,0.0,1.0,90,0.00,,,0.00,WeatherDisplay:10.37,2014-01-19 09:48:00,
2014-01-19 04:51:00,17.5,15.1,29.81,SE,143,0.0,0.0,90,0.00,,,0.00,WeatherDisplay:10.37,2014-01-19 09:51:00,
2014-01-19 04:52:00,17.5,15.1,29.81,SE,143,0.0,0.0,90,0.00,,,0.00,WeatherDisplay:10.37,2014-01-19 09:52:00,
2014-01-19 04:53:00,17.5,15.1,29.81,SE,143,0.0,0.0,90,0.00,,,0.00,WeatherDisplay:10.37,2014-01-19 09:53:00,
2014-01-19 04:54:00,17.5,15.1,29.81,SE,143,0.0,0.0,90,0.00,,,0.00,WeatherDisplay:10.37,2014-01-19 09:54:00,
2014-01-19 04:57:00,17.5,15.1,29.81,SE,143,0.0,0.0,90,0.00,,,0.00,WeatherDisplay:10.37,2014-01-19 09:57:00,
2014-01-19 04:58:00,17.4,15.0,29.81,SE,143,0.1,1.0,90,0.00,,,0.00,WeatherDisplay:10.37,2014-01-19 09:58:00,
2014-01-19 04:59:00,17.4,15.0,29.81,SE,143,0.1,1.2,90,0.00,,,0.00,WeatherDisplay:10.37,2014-01-19 09:59:00,
2014-01-19 05:02:00,17.4,15.0,29.81,SE,143,0.0,0.0,90,0.00,,,0.00,WeatherDisplay:10.37,2014-01-19 10:02:00,
2014-01-19 05:03:00,17.3,14.9,29.81,SE,143,0.0,0.0,90,0.00,,,0.00,WeatherDisplay:10.37,2014-01-19 10:03:00,
2014-01-19 05:04:00,17.3,14.9,29.81,SE,143,0.1,1.2,90,0.00,,,0.00,WeatherDisplay:10.37,2014-01-19 10:04:00,
2014-01-19 05:06:00,17.3,14.9,29.81,SE,143,0.0,0.0,90,0.00,,,0.00,WeatherDisplay:10.37,2014-01-19 10:06:00,
2014-01-19 05:08:00,17.3,14.9,29.81,SE,143,0.0,0.0,90,0.00,,,0.00,WeatherDisplay:10.37,2014-01-19 10:08:00,
2014-01-19 05:10:00,17.2,14.8,29.81,SE,143,0.0,0.0,90,0.00,,,0.00,WeatherDisplay:10.37,2014-01-19 10:10:00,
2014-01-19 05:13:00,17.2,14.5,29.81,SE,143,0.0,0.0,89,0.00,,,0.00,WeatherDisplay:10.37,2014-01-19 10:13:00,
2014-01-19 05:15:00,17.1,14.4,29.81,SE,143,0.0,0.0,89,0.00,,,0.00,WeatherDisplay:10.37,2014-01-19 10:15:00,
2014-01-19 05:17:00,17.0,14.3,29.81,SE,143,0.0,0.0,89,0.00,,,0.00,WeatherDisplay:10.37,2014-01-19 10:17:00,
2014-01-19 05:18:00,17.0,14.3,29.81,SE,143,0.0,0.0,89,0.00,,,0.00,WeatherDisplay:10.37,2014-01-19 10:18:00,
2014-01-19 05:20:00,16.9,14.2,29.81,SE,143,0.0,0.0,89,0.00,,,0.00,WeatherDisplay:10.37,2014-01-19 10:20:00,
2014-01-19 05:21:00,16.9,14.2,29.81,SE,143,0.0,0.0,89,0.00,,,0.00,WeatherDisplay:10.37,2014-01-19 10:21:00,
2014-01-19 05:24:00,16.8,14.1,29.81,SE,143,0.0,0.0,89,0.00,,,0.00,WeatherDisplay:10.37,2014-01-19 10:24:00,
2014-01-19 05:25:00,16.8,14.1,29.81,SE,143,0.0,0.0,89,0.00,,,0.00,WeatherDisplay:10.37,2014-01-19 10:25:00,
2014-01-19 05:26:00,16.7,14.0,29.81,SE,143,0.0,0.0,89,0.00,,,0.00,WeatherDisplay:10.37,2014-01-19 10:26:00,
2014-01-19 05:28:00,16.7,14.0,29.81,SE,143,0.0,0.0,89,0.00,,,0.00,WeatherDisplay:10.37,2014-01-19 10:28:00,
2014-01-19 05:30:00,16.6,14.2,29.81,SE,143,0.0,0.0,90,0.00,,,0.00,WeatherDisplay:10.37,2014-01-19 10:30:00,
2014-01-19 05:31:00,16.6,13.9,29.80,SE,143,0.0,0.0,89,0.00,,,0.00,WeatherDisplay:10.37,2014-01-19 10:31:00,
2014-01-19 05:33:00,16.6,14.2,29.81,SE,143,0.0,0.0,90,0.00,,,0.00,WeatherDisplay:10.37,2014-01-19 10:33:00,
2014-01-19 05:35:00,16.5,14.1,29.81,SE,143,0.0,1.2,90,0.00,,,0.00,WeatherDisplay:10.37,2014-01-19 10:35:00,
2014-01-19 05:37:00,16.5,14.1,29.81,SE,143,0.1,1.2,90,0.00,,,0.00,WeatherDisplay:10.37,2014-01-19 10:37:00,
2014-01-19 05:38:00,16.5,14.1,29.81,SE,143,0.1,1.2,90,0.00,,,0.00,WeatherDisplay:10.37,2014-01-19 10:38:00,
2014-01-19 05:39:00,16.4,14.0,29.80,SE,143,0.0,1.2,90,0.00,,,0.00,WeatherDisplay:10.37,2014-01-19 10:39:00,
2014-01-19 05:40:00,16.4,14.0,29.81,SE,143,0.0,1.2,90,0.00,,,0.00,WeatherDisplay:10.37,2014-01-19 10:40:00,
2014-01-19 05:43:00,16.3,13.9,29.81,SE,143,0.0,0.0,90,0.00,,,0.00,WeatherDisplay:10.37,2014-01-19 10:43:00,
2014-01-19 05:45:00,16.3,13.9,29.81,SE,143,0.0,0.0,90,0.00,,,0.00,WeatherDisplay:10.37,2014-01-19 10:45:00,
2014-01-19 05:46:00,16.4,14.0,29.81,SE,143,0.1,1.2,90,0.00,,,0.00,WeatherDisplay:10.37,2014-01-19 10:46:00,
2014-01-19 05:47:00,16.3,13.9,29.81,SE,144,0.1,1.2,90,0.00,,,0.00,WeatherDisplay:10.37,2014-01-19 10:47:00,
2014-01-19 05:50:00,16.4,14.0,29.81,SE,144,0.0,0.0,90,0.00,,,0.00,WeatherDisplay:10.37,2014-01-19 10:50:00,
2014-01-19 05:51:00,16.4,14.0,29.81,SE,144,0.0,0.0,90,0.00,,,0.00,WeatherDisplay:10.37,2014-01-19 10:51:00,
2014-01-19 05:52:00,16.4,14.2,29.81,SE,144,0.0,0.0,91,0.00,,,0.00,WeatherDisplay:10.37,2014-01-19 10:52:00,
2014-01-19 05:53:00,16.4,14.2,29.81,SE,144,0.0,0.0,91,0.00,,,0.00,WeatherDisplay:10.37,2014-01-19 10:53:00,
2014-01-19 05:54:00,16.4,14.2,29.81,SE,144,0.0,0.0,91,0.00,,,0.00,WeatherDisplay:10.37,2014-01-19 10:54:00,
2014-01-19 05:55:00,16.4,14.2,29.80,SE,144,0.0,0.0,91,0.00,,,0.00,WeatherDisplay:10.37,2014-01-19 10:55:00,
2014-01-19 05:56:00,16.4,14.2,29.81,SE,144,0.0,0.0,91,0.00,,,0.00,WeatherDisplay:10.37,2014-01-19 10:56:00,
2014-01-19 05:58:00,16.5,14.3,29.81,SE,144,0.0,1.2,91,0.00,,,0.00,WeatherDisplay:10.37,2014-01-19 10:58:00,
2014-01-19 06:00:00,16.5,14.3,29.81,SE,144,0.0,1.0,91,0.00,,,0.00,WeatherDisplay:10.37,2014-01-19 11:00:00,
2014-01-19 06:01:00,16.6,14.4,29.81,SE,144,0.0,0.0,91,0.00,,,0.00,WeatherDisplay:10.37,2014-01-19 11:01:00,
2014-01-19 06:02:00,16.6,14.4,29.81,SE,144,0.3,2.3,91,0.00,,,0.00,WeatherDisplay:10.37,2014-01-19 11:02:00,
2014-01-19 06:04:00,16.7,14.5,29.81,SE,144,0.2,1.2,91,0.00,,,0.00,WeatherDisplay:10.37,2014-01-19 11:04:00,
2014-01-19 06:05:00,16.7,14.5,29.81,SE,144,0.3,1.2,91,0.00,,,0.00,WeatherDisplay:10.37,2014-01-19 11:05:00,
2014-01-19 06:06:00,16.7,14.5,29.81,SE,144,0.3,1.2,91,0.00,,,0.00,WeatherDisplay:10.37,2014-01-19 11:06:00,
2014-01-19 06:08:00,16.8,14.6,29.81,SE,144,0.1,1.2,91,0.00,,,0.00,WeatherDisplay:10.37,2014-01-19 11:08:00,
2014-01-19 06:09:00,16.8,14.6,29.81,SE,144,0.0,0.0,91,0.00,,,0.00,WeatherDisplay:10.37,2014-01-19 11:09:00,
2014-01-19 06:10:00,16.9,14.7,29.81,SE,144,0.3,1.2,91,0.00,,,0.00,WeatherDisplay:10.37,2014-01-19 11:10:00,
2014-01-19 06:11:00,16.9,14.7,29.81,SE,144,0.0,1.2,91,0.00,,,0.00,WeatherDisplay:10.37,2014-01-19 11:11:00,
2014-01-19 06:13:00,17.0,14.8,29.81,ESE,119,0.2,1.2,91,0.00,,,0.00,WeatherDisplay:10.37,2014-01-19 11:13:00,
2014-01-19 06:15:00,17.0,14.8,29.81,ESE,121,0.6,2.3,91,0.00,,,0.00,WeatherDisplay:10.37,2014-01-19 11:15:00,
2014-01-19 06:17:00,17.0,14.8,29.81,ESE,122,0.9,1.2,91,0.00,,,0.00,WeatherDisplay:10.37,2014-01-19 11:17:00,
2014-01-19 06:18:00,17.0,14.8,29.81,SSE,163,0.3,2.3,91,0.00,,,0.00,WeatherDisplay:10.37,2014-01-19 11:18:00,
2014-01-19 06:20:00,17.1,14.9,29.81,SSE,162,0.0,0.0,91,0.00,,,0.00,WeatherDisplay:10.37,2014-01-19 11:20:00,
2014-01-19 06:22:00,17.1,14.9,29.81,SSE,162,0.0,1.2,91,0.00,,,0.00,WeatherDisplay:10.37,2014-01-19 11:22:00,
2014-01-19 06:24:00,17.1,14.9,29.81,SSE,162,0.0,0.0,91,0.00,,,0.00,WeatherDisplay:10.37,2014-01-19 11:24:00,
2014-01-19 06:25:00,17.1,14.9,29.81,SSE,162,0.0,0.0,91,0.00,,,0.00,WeatherDisplay:10.37,2014-01-19 11:25:00,
2014-01-19 06:27:00,17.1,14.9,29.81,SSE,162,0.0,0.0,91,0.00,,,0.00,WeatherDisplay:10.37,2014-01-19 11:27:00,
2014-01-19 06:30:00,17.1,14.9,29.81,SSE,162,0.0,1.0,91,0.00,,,0.00,WeatherDisplay:10.37,2014-01-19 11:30:00,
2014-01-19 06:35:00,17.2,15.0,29.81,SSE,162,0.0,0.0,91,0.00,,,0.00,WeatherDisplay:10.37,2014-01-19 11:35:00,
2014-01-19 06:36:00,17.2,15.0,29.81,SSE,162,0.0,0.0,91,0.00,,,0.00,WeatherDisplay:10.37,2014-01-19 11:36:00,
2014-01-19 06:37:00,17.2,15.0,29.81,SSE,162,0.0,0.0,91,0.00,,,0.00,WeatherDisplay:10.37,2014-01-19 11:37:00,
2014-01-19 06:41:00,17.3,15.1,29.81,SSE,162,0.0,0.0,91,0.00,,,0.00,WeatherDisplay:10.37,2014-01-19 11:41:00,
2014-01-19 06:42:00,17.3,15.1,29.82,SSE,162,0.1,0.0,91,0.00,,,0.00,WeatherDisplay:10.37,2014-01-19 11:42:00,
2014-01-19 06:43:00,17.3,15.1,29.82,SSE,162,0.1,1.2,91,0.00,,,0.00,WeatherDisplay:10.37,2014-01-19 11:43:00,
2014-01-19 06:44:00,17.3,15.1,29.81,SSE,162,0.0,1.2,91,0.00,,,0.00,WeatherDisplay:10.37,2014-01-19 11:44:00,
2014-01-19 06:47:00,17.4,15.2,29.81,SSE,162,0.0,1.2,91,0.00,,,0.00,WeatherDisplay:10.37,2014-01-19 11:47:00,
2014-01-19 06:48:00,17.4,15.2,29.81,SSE,162,0.0,0.0,91,0.00,,,0.00,WeatherDisplay:10.37,2014-01-19 11:48:00,
2014-01-19 06:49:00,17.4,15.2,29.81,SSE,162,0.0,0.0,91,0.00,,,0.00,WeatherDisplay:10.37,2014-01-19 11:49:00,
2014-01-19 06:50:00,17.5,15.3,29.81,SSE,162,0.0,1.0,91,0.00,,,0.00,WeatherDisplay:10.37,2014-01-19 11:50:00,
2014-01-19 06:53:00,17.5,15.3,29.82,SSE,162,0.0,1.2,91,0.00,,,0.00,WeatherDisplay:10.37,2014-01-19 11:53:00,
2014-01-19 06:55:00,17.5,15.3,29.82,SSE,162,0.3,1.2,91,0.00,,,0.00,WeatherDisplay:10.37,2014-01-19 11:55:00,
2014-01-19 06:56:00,17.5,15.3,29.82,SSE,163,0.9,2.3,91,0.00,,,0.00,WeatherDisplay:10.37,2014-01-19 11:56:00,
2014-01-19 06:57:00,17.6,15.4,29.82,SSE,163,1.0,2.3,91,0.00,,,0.00,WeatherDisplay:10.37,2014-01-19 11:57:00,
2014-01-19 06:58:00,17.6,15.4,29.82,South,178,1.7,2.3,91,0.00,,,0.00,WeatherDisplay:10.37,2014-01-19 11:58:00,
2014-01-19 07:00:00,17.6,15.4,29.81,South,178,0.1,1.2,91,0.00,,,0.00,WeatherDisplay:10.37,2014-01-19 12:00:00,
2014-01-19 07:01:00,17.6,15.4,29.81,South,178,0.2,1.2,91,0.00,,,0.00,WeatherDisplay:10.37,2014-01-19 12:01:00,
2014-01-19 07:03:00,17.7,15.5,29.81,SSW,194,1.8,3.5,91,0.00,,,0.00,WeatherDisplay:10.37,2014-01-19 12:03:00,
2014-01-19 07:05:00,17.7,15.5,29.81,SSW,194,1.2,3.5,91,0.00,,,0.00,WeatherDisplay:10.37,2014-01-19 12:05:00,
2014-01-19 07:06:00,17.7,15.5,29.81,SSW,192,1.3,3.5,91,0.00,,,0.00,WeatherDisplay:10.37,2014-01-19 12:06:00,
2014-01-19 07:07:00,17.7,15.5,29.81,South,178,1.8,3.5,91,0.00,,,0.00,WeatherDisplay:10.37,2014-01-19 12:07:00,
2014-01-19 07:08:00,17.8,15.6,29.81,South,185,1.9,3.5,91,0.00,,,0.00,WeatherDisplay:10.37,2014-01-19 12:08:00,
2014-01-19 07:10:00,17.8,15.6,29.81,South,170,1.3,2.3,91,0.00,,,0.00,WeatherDisplay:10.37,2014-01-19 12:10:00,
2014-01-19 07:12:00,17.9,15.7,29.81,South,190,1.7,2.0,91,0.00,CLR,,0.00,WeatherDisplay:10.37,2014-01-19 12:12:00,
2014-01-19 07:13:00,17.9,15.7,29.81,South,188,0.6,2.3,91,0.00,CLR,,0.00,WeatherDisplay:10.37,2014-01-19 12:13:00,
2014-01-19 07:14:00,17.8,15.6,29.81,South,188,0.2,1.2,91,0.00,CLR,,0.00,WeatherDisplay:10.37,2014-01-19 12:14:00,
2014-01-19 07:15:00,17.9,15.7,29.81,South,188,0.0,1.2,91,0.00,CLR,,0.00,WeatherDisplay:10.37,2014-01-19 12:15:00,
2014-01-19 07:18:00,17.9,15.7,29.81,South,184,0.9,2.3,91,0.00,CLR,,0.00,WeatherDisplay:10.37,2014-01-19 12:18:00,
2014-01-19 07:19:00,17.9,15.7,29.81,SE,142,1.7,3.5,91,0.00,CLR,,0.00,WeatherDisplay:10.37,2014-01-19 12:19:00,
2014-01-19 07:20:00,17.9,15.7,29.81,South,176,1.0,4.0,91,0.00,CLR,,0.00,WeatherDisplay:10.37,2014-01-19 12:20:00,
2014-01-19 07:21:00,17.9,15.7,29.81,SSE,148,0.9,3.5,91,0.00,CLR,,0.00,WeatherDisplay:10.37,2014-01-19 12:21:00,
2014-01-19 07:22:00,17.9,15.7,29.81,SSE,148,0.0,1.2,91,0.00,CLR,,0.00,WeatherDisplay:10.37,2014-01-19 12:22:00,
2014-01-19 07:23:00,17.9,15.7,29.81,South,188,1.0,2.3,91,0.00,CLR,,0.00,WeatherDisplay:10.37,2014-01-19 12:23:00,
2014-01-19 07:24:00,17.9,15.7,29.81,SSW,198,2.3,3.5,91,0.00,CLR,,0.00,WeatherDisplay:10.37,2014-01-19 12:24:00,
2014-01-19 07:26:00,18.0,15.8,29.81,SSW,194,1.0,3.5,91,0.00,CLR,,0.00,WeatherDisplay:10.37,2014-01-19 12:26:00,
2014-01-19 07:27:00,18.0,15.8,29.81,SSW,196,2.8,3.5,91,0.00,CLR,,0.00,WeatherDisplay:10.37,2014-01-19 12:27:00,
2014-01-19 07:28:00,18.0,15.8,29.81,South,180,1.3,3.5,91,0.00,CLR,,0.00,WeatherDisplay:10.37,2014-01-19 12:28:00,
2014-01-19 07:29:00,18.0,15.8,29.81,South,180,0.2,3.5,91,0.00,CLR,,0.00,WeatherDisplay:10.37,2014-01-19 12:29:00,
2014-01-19 07:32:00,18.0,15.8,29.82,SW,221,2.7,2.7,91,0.00,CLR,,0.00,WeatherDisplay:10.37,2014-01-19 12:32:00,
2014-01-19 07:33:00,18.1,15.9,29.82,SW,219,1.3,2.3,91,0.00,CLR,,0.00,WeatherDisplay:10.37,2014-01-19 12:33:00,
2014-01-19 07:34:00,18.1,15.9,29.82,SW,219,2.0,3.5,91,0.00,CLR,,0.00,WeatherDisplay:10.37,2014-01-19 12:34:00,
2014-01-19 07:36:00,18.1,15.9,29.82,SW,219,0.9,2.3,91,0.00,CLR,,0.00,WeatherDisplay:10.37,2014-01-19 12:36:00,
2014-01-19 07:37:00,18.1,15.9,29.82,SW,219,0.4,2.3,91,0.00,CLR,,0.00,WeatherDisplay:10.37,2014-01-19 12:37:00,
2014-01-19 07:38:00,18.1,15.9,29.82,SW,219,0.0,0.0,91,0.00,CLR,,0.00,WeatherDisplay:10.37,2014-01-19 12:38:00,
2014-01-19 07:40:00,18.1,16.0,29.82,SW,218,0.0,4.0,91,0.00,CLR,,0.00,WeatherDisplay:10.37,2014-01-19 12:40:00,
2014-01-19 07:42:00,18.2,16.0,29.82,SW,219,0.1,0.0,91,0.00,CLR,,0.00,WeatherDisplay:10.37,2014-01-19 12:42:00,
2014-01-19 07:43:00,18.2,16.0,29.82,SW,219,0.2,2.0,91,0.00,CLR,,0.00,WeatherDisplay:10.37,2014-01-19 12:43:00,
2014-01-19 07:45:00,18.2,16.0,29.82,SSW,211,1.4,3.5,91,0.00,CLR,,0.00,WeatherDisplay:10.37,2014-01-19 12:45:00,
2014-01-19 07:46:00,18.2,16.0,29.82,SSW,210,0.3,1.2,91,0.00,CLR,,0.00,WeatherDisplay:10.37,2014-01-19 12:46:00,
2014-01-19 07:47:00,18.3,16.1,29.82,SSW,213,2.8,3.5,91,0.00,CLR,,0.00,WeatherDisplay:10.37,2014-01-19 12:47:00,
2014-01-19 07:48:00,18.3,16.1,29.82,SW,217,2.7,3.5,91,0.00,CLR,,0.00,WeatherDisplay:10.37,2014-01-19 12:48:00,
2014-01-19 07:49:00,18.3,16.1,29.82,SW,217,2.0,3.5,91,0.00,CLR,,0.00,WeatherDisplay:10.37,2014-01-19 12:49:00,
2014-01-19 07:50:00,18.3,16.1,29.82,SW,216,1.0,4.0,91,0.00,CLR,,0.00,WeatherDisplay:10.37,2014-01-19 12:50:00,
2014-01-19 07:51:00,18.4,16.2,29.82,SW,217,2.4,3.5,91,0.00,CLR,,0.00,WeatherDisplay:10.37,2014-01-19 12:51:00,
2014-01-19 07:52:00,18.4,16.2,29.82,SW,218,1.7,3.5,91,0.00,CLR,,0.00,WeatherDisplay:10.37,2014-01-19 12:52:00,
2014-01-19 07:54:00,18.4,16.2,29.82,SW,219,1.5,2.3,91,0.00,CLR,,0.00,WeatherDisplay:10.37,2014-01-19 12:54:00,
2014-01-19 07:55:00,18.5,16.3,29.82,SW,227,1.6,3.0,91,0.00,CLR,,0.00,WeatherDisplay:10.37,2014-01-19 12:55:00,
2014-01-19 07:56:00,18.5,16.3,29.82,SW,229,3.7,4.0,91,0.00,CLR,,0.00,WeatherDisplay:10.37,2014-01-19 12:56:00,
2014-01-19 07:57:00,18.5,16.3,29.82,SW,230,3.4,3.5,91,0.00,CLR,,0.00,WeatherDisplay:10.37,2014-01-19 12:57:00,
2014-01-19 07:58:00,18.5,16.3,29.82,SW,229,2.3,3.5,91,0.00,CLR,,0.00,WeatherDisplay:10.37,2014-01-19 12:58:00,
2014-01-19 07:59:00,18.6,16.4,29.82,SW,229,2.2,3.5,91,0.00,CLR,,0.00,WeatherDisplay:10.37,2014-01-19 12:59:00,
2014-01-19 08:00:00,18.6,16.4,29.82,SW,231,2.5,3.5,91,0.00,CLR,,0.00,WeatherDisplay:10.37,2014-01-19 13:00:00,
2014-01-19 08:02:00,18.6,16.4,29.82,WSW,248,2.1,4.6,91,0.00,CLR,,0.00,WeatherDisplay:10.37,2014-01-19 13:02:00,
2014-01-19 08:03:00,18.7,16.8,29.82,SW,234,5.3,6.0,92,0.00,CLR,,0.00,WeatherDisplay:10.37,2014-01-19 13:03:00,
2014-01-19 08:04:00,18.8,16.9,29.82,WSW,237,5.0,5.8,92,0.00,CLR,,0.00,WeatherDisplay:10.37,2014-01-19 13:04:00,
2014-01-19 08:05:00,18.8,16.9,29.82,WSW,253,4.5,5.8,92,0.00,CLR,,0.00,WeatherDisplay:10.37,2014-01-19 13:05:00,
2014-01-19 08:10:00,19.0,17.1,29.82,WSW,247,5.0,7.0,92,0.00,CLR,,0.00,WeatherDisplay:10.37,2014-01-19 13:10:00,
2014-01-19 08:12:00,19.1,17.2,29.82,WSW,256,3.4,5.8,92,0.00,CLR,,0.00,WeatherDisplay:10.37,2014-01-19 13:12:00,
2014-01-19 08:13:00,19.1,17.2,29.82,WSW,254,4.1,4.1,92,0.00,CLR,,0.00,WeatherDisplay:10.37,2014-01-19 13:13:00,
2014-01-19 08:15:00,19.3,17.4,29.82,WSW,252,3.2,4.6,92,0.00,CLR,,0.00,WeatherDisplay:10.37,2014-01-19 13:15:00,
2014-01-19 08:16:00,19.3,17.4,29.83,WSW,258,3.3,5.0,92,0.00,CLR,,0.00,WeatherDisplay:10.37,2014-01-19 13:16:00,
2014-01-19 08:17:00,19.3,17.4,29.83,SW,228,4.3,7.0,92,0.00,CLR,,0.00,WeatherDisplay:10.37,2014-01-19 13:17:00,
2014-01-19 08:20:00,19.5,17.6,29.83,West,259,5.1,7.0,92,0.00,CLR,,0.00,WeatherDisplay:10.37,2014-01-19 13:20:00,
2014-01-19 08:22:00,19.6,17.7,29.83,WSW,250,4.0,8.0,92,0.00,CLR,,0.00,WeatherDisplay:10.37,2014-01-19 13:22:00,
2014-01-19 08:23:00,19.7,17.8,29.83,West,261,6.0,9.2,92,0.00,CLR,,0.00,WeatherDisplay:10.37,2014-01-19 13:23:00,
2014-01-19 08:24:00,19.7,17.8,29.83,WSW,250,5.2,9.2,92,0.00,CLR,,0.00,WeatherDisplay:10.37,2014-01-19 13:24:00,
2014-01-19 08:26:00,19.8,17.9,29.83,WSW,257,6.2,8.1,92,0.00,CLR,,0.00,WeatherDisplay:10.37,2014-01-19 13:26:00,
2014-01-19 08:28:00,19.8,17.9,29.83,WSW,250,6.7,10.4,92,0.00,CLR,,0.00,WeatherDisplay:10.37,2014-01-19 13:28:00,
2014-01-19 08:30:00,19.9,18.0,29.83,West,268,7.0,9.2,92,0.00,CLR,,0.00,WeatherDisplay:10.37,2014-01-19 13:30:00,
2014-01-19 08:31:00,19.9,18.0,29.82,WSW,246,6.1,8.1,92,0.00,CLR,,0.00,WeatherDisplay:10.37,2014-01-19 13:31:00,
2014-01-19 08:33:00,20.0,17.8,29.83,WSW,252,4.8,6.9,91,0.00,CLR,,0.00,WeatherDisplay:10.37,2014-01-19 13:33:00,
2014-01-19 08:35:00,20.0,18.1,29.82,WSW,252,5.3,7.0,92,0.00,CLR,,0.00,WeatherDisplay:10.37,2014-01-19 13:35:00,
2014-01-19 08:36:00,20.1,18.1,29.82,WSW,244,5.5,8.1,92,0.00,CLR,,0.00,WeatherDisplay:10.37,2014-01-19 13:36:00,
2014-01-19 08:39:00,20.2,18.0,29.82,WSW,254,4.9,6.0,91,0.00,CLR,,0.00,WeatherDisplay:10.37,2014-01-19 13:39:00,
2014-01-19 08:40:00,20.2,18.0,29.83,WSW,252,4.9,8.0,91,0.00,CLR,,0.00,WeatherDisplay:10.37,2014-01-19 13:40:00,
2014-01-19 08:43:00,20.3,18.1,29.83,WSW,250,5.5,6.9,91,0.00,CLR,,0.00,WeatherDisplay:10.37,2014-01-19 13:43:00,
2014-01-19 08:44:00,20.3,18.1,29.83,West,259,5.3,8.1,91,0.00,CLR,,0.00,WeatherDisplay:10.37,2014-01-19 13:44:00,
2014-01-19 08:45:00,20.3,18.1,29.83,WSW,254,5.6,8.1,91,0.00,CLR,,0.00,WeatherDisplay:10.37,2014-01-19 13:45:00,
2014-01-19 08:46:00,20.3,18.1,29.83,WSW,254,10.0,12.7,91,0.00,CLR,,0.00,WeatherDisplay:10.37,2014-01-19 13:46:00,
2014-01-19 08:47:00,20.4,18.2,29.83,WSW,246,8.2,12.7,91,0.00,CLR,,0.00,WeatherDisplay:10.37,2014-01-19 13:47:00,
2014-01-19 08:50:00,20.4,18.2,29.83,WSW,258,5.2,6.9,91,0.00,CLR,,0.00,WeatherDisplay:10.37,2014-01-19 13:50:00,
2014-01-19 08:51:00,20.4,18.2,29.83,WSW,246,5.2,5.8,91,0.00,CLR,,0.00,WeatherDisplay:10.37,2014-01-19 13:51:00,
2014-01-19 08:53:00,20.5,18.3,29.83,West,275,5.4,10.4,91,0.00,CLR,,0.00,WeatherDisplay:10.37,2014-01-19 13:53:00,
2014-01-19 08:54:00,20.5,18.3,29.83,WSW,252,4.9,6.9,91,0.00,CLR,,0.00,WeatherDisplay:10.37,2014-01-19 13:54:00,
2014-01-19 08:55:00,20.5,18.3,29.83,West,280,5.3,5.8,91,0.00,CLR,,0.00,WeatherDisplay:10.37,2014-01-19 13:55:00,
2014-01-19 08:57:00,20.6,18.4,29.83,WSW,252,6.1,11.5,91,0.00,CLR,,0.00,WeatherDisplay:10.37,2014-01-19 13:57:00,
2014-01-19 08:58:00,20.6,18.4,29.83,West,268,6.0,9.2,91,0.00,CLR,,0.00,WeatherDisplay:10.37,2014-01-19 13:58:00,
2014-01-19 08:59:00,20.6,18.4,29.83,West,261,6.8,9.2,91,0.00,CLR,,0.00,WeatherDisplay:10.37,2014-01-19 13:59:00,
2014-01-19 09:00:00,20.6,18.4,29.83,WSW,255,7.0,9.2,91,0.00,CLR,,0.00,WeatherDisplay:10.37,2014-01-19 14:00:00,
2014-01-19 09:02:00,20.7,18.5,29.83,WSW,244,4.8,6.0,91,0.00,CLR,,0.00,WeatherDisplay:10.37,2014-01-19 14:02:00,
2014-01-19 09:03:00,20.7,18.5,29.83,WSW,252,5.4,5.8,91,0.00,CLR,,0.00,WeatherDisplay:10.37,2014-01-19 14:03:00,
2014-01-19 09:04:00,20.7,18.5,29.83,WSW,252,4.0,5.8,91,0.00,CLR,,0.00,WeatherDisplay:10.37,2014-01-19 14:04:00,
2014-01-19 09:07:00,20.8,18.6,29.83,WSW,252,7.2,8.0,91,0.00,CLR,,0.00,WeatherDisplay:10.37,2014-01-19 14:07:00,
2014-01-19 09:08:00,20.8,18.6,29.83,WSW,253,7.8,10.4,91,0.00,CLR,,0.00,WeatherDisplay:10.37,2014-01-19 14:08:00,
2014-01-19 09:09:00,20.9,18.7,29.83,WSW,254,10.3,11.5,91,0.00,CLR,,0.00,WeatherDisplay:10.37,2014-01-19 14:09:00,
2014-01-19 09:10:00,20.9,18.7,29.83,West,263,9.4,11.5,91,0.00,CLR,,0.00,WeatherDisplay:10.37,2014-01-19 14:10:00,
2014-01-19 09:11:00,20.9,18.7,29.83,WSW,250,8.5,11.5,91,0.00,CLR,,0.00,WeatherDisplay:10.37,2014-01-19 14:11:00,
2014-01-19 09:15:00,20.9,18.4,29.83,WSW,251,6.0,8.1,90,0.00,CLR,,0.00,WeatherDisplay:10.37,2014-01-19 14:15:00,
2014-01-19 09:16:00,20.9,18.4,29.83,WSW,250,8.6,10.4,90,0.00,CLR,,0.00,WeatherDisplay:10.37,2014-01-19 14:16:00,
2014-01-19 09:17:00,20.9,18.4,29.83,West,268,6.4,9.2,90,0.00,CLR,,0.00,WeatherDisplay:10.37,2014-01-19 14:17:00,
2014-01-19 09:19:00,21.0,18.5,29.83,WSW,247,4.5,5.8,90,0.00,CLR,,0.00,WeatherDisplay:10.37,2014-01-19 14:19:00,
2014-01-19 09:20:00,21.0,18.5,29.83,WSW,258,4.4,5.8,90,0.00,CLR,,0.00,WeatherDisplay:10.37,2014-01-19 14:20:00,
2014-01-19 09:22:00,21.0,18.8,29.83,WSW,250,9.2,12.0,91,0.00,CLR,,0.00,WeatherDisplay:10.37,2014-01-19 14:22:00,
2014-01-19 09:23:00,21.0,18.5,29.83,West,261,5.1,11.5,90,0.00,CLR,,0.00,WeatherDisplay:10.37,2014-01-19 14:23:00,
2014-01-19 09:25:00,21.1,18.6,29.83,West,269,6.9,11.5,90,0.00,CLR,,0.00,WeatherDisplay:10.37,2014-01-19 14:25:00,
2014-01-19 09:26:00,21.1,18.9,29.83,WNW,286,5.6,10.4,91,0.00,CLR,,0.00,WeatherDisplay:10.37,2014-01-19 14:26:00,
2014-01-19 09:28:00,21.1,18.9,29.83,WSW,252,7.7,9.2,91,0.00,CLR,,0.00,WeatherDisplay:10.37,2014-01-19 14:28:00,
2014-01-19 09:29:00,21.1,18.9,29.83,West,267,8.5,11.5,91,0.00,CLR,,0.00,WeatherDisplay:10.37,2014-01-19 14:29:00,
2014-01-19 09:33:00,21.2,19.0,29.83,West,278,6.9,9.2,91,0.00,CLR,,0.00,WeatherDisplay:10.37,2014-01-19 14:33:00,
2014-01-19 09:34:00,21.2,19.0,29.83,WSW,252,5.1,8.1,91,0.00,CLR,,0.00,WeatherDisplay:10.37,2014-01-19 14:34:00,
2014-01-19 09:35:00,21.2,19.0,29.83,WSW,244,6.6,8.1,91,0.00,CLR,,0.00,WeatherDisplay:10.37,2014-01-19 14:35:00,
2014-01-19 09:36:00,21.2,19.0,29.83,SW,223,8.3,13.8,91,0.00,CLR,,0.00,WeatherDisplay:10.37,2014-01-19 14:36:00,
2014-01-19 09:38:00,21.3,19.1,29.83,WSW,258,7.1,10.4,91,0.00,CLR,,0.00,WeatherDisplay:10.37,2014-01-19 14:38:00,
2014-01-19 09:39:00,21.3,19.1,29.83,WSW,251,7.5,10.4,91,0.00,CLR,,0.00,WeatherDisplay:10.37,2014-01-19 14:39:00,
2014-01-19 09:40:00,21.3,19.1,29.83,West,267,8.7,9.2,91,0.00,CLR,,0.00,WeatherDisplay:10.37,2014-01-19 14:40:00,
2014-01-19 09:41:00,21.3,19.1,29.83,West,259,5.7,9.2,91,0.00,CLR,,0.00,WeatherDisplay:10.37,2014-01-19 14:41:00,
2014-01-19 09:43:00,21.3,19.1,29.83,SW,230,5.1,9.2,91,0.00,CLR,,0.00,WeatherDisplay:10.37,2014-01-19 14:43:00,
2014-01-19 09:45:00,21.4,19.2,29.83,WSW,246,3.9,10.4,91,0.00,CLR,,0.00,WeatherDisplay:10.37,2014-01-19 14:45:00,
2014-01-19 09:46:00,21.5,19.3,29.83,WSW,248,9.4,11.5,91,0.00,CLR,,0.00,WeatherDisplay:10.37,2014-01-19 14:46:00,
2014-01-19 09:47:00,21.5,19.3,29.83,West,259,7.5,10.4,91,0.00,CLR,,0.00,WeatherDisplay:10.37,2014-01-19 14:47:00,
2014-01-19 09:48:00,21.5,19.3,29.83,WSW,252,7.7,10.4,91,0.00,CLR,,0.00,WeatherDisplay:10.37,2014-01-19 14:48:00,
2014-01-19 09:52:00,21.6,19.4,29.82,SW,233,6.6,9.0,91,0.00,CLR,,0.00,WeatherDisplay:10.37,2014-01-19 14:52:00,
2014-01-19 09:53:00,21.7,19.5,29.82,SW,234,6.9,10.4,91,0.00,CLR,,0.00,WeatherDisplay:10.37,2014-01-19 14:53:00,
2014-01-19 09:55:00,21.8,19.6,29.82,West,262,7.3,10.4,91,0.00,CLR,,0.00,WeatherDisplay:10.37,2014-01-19 14:55:00,
2014-01-19 09:57:00,21.9,19.4,29.82,SW,225,7.0,8.1,90,0.00,CLR,,0.00,WeatherDisplay:10.37,2014-01-19 14:57:00,
2014-01-19 09:58:00,22.0,19.5,29.82,SW,235,3.9,6.9,90,0.00,CLR,,0.00,WeatherDisplay:10.37,2014-01-19 14:58:00,
2014-01-19 09:59:00,22.1,19.6,29.82,WSW,242,6.4,11.5,90,0.00,CLR,,0.00,WeatherDisplay:10.37,2014-01-19 14:59:00,
2014-01-19 10:03:00,22.3,19.8,29.83,SW,233,8.6,14.0,90,0.00,CLR,,0.00,WeatherDisplay:10.37,2014-01-19 15:03:00,
2014-01-19 10:05:00,22.3,19.8,29.83,SW,232,9.2,16.1,90,0.00,CLR,,0.00,WeatherDisplay:10.37,2014-01-19 15:05:00,
2014-01-19 10:08:00,22.5,20.0,29.83,WSW,257,8.7,11.5,90,0.00,CLR,,0.00,WeatherDisplay:10.37,2014-01-19 15:08:00,
2014-01-19 10:10:00,22.5,20.0,29.83,WSW,242,7.4,11.5,90,0.00,CLR,,0.00,WeatherDisplay:10.37,2014-01-19 15:10:00,
2014-01-19 10:11:00,22.6,20.1,29.83,SW,234,8.3,10.4,90,0.00,CLR,,0.00,WeatherDisplay:10.37,2014-01-19 15:11:00,
2014-01-19 10:13:00,22.6,19.8,29.83,WSW,253,7.9,11.5,89,0.00,CLR,,0.00,WeatherDisplay:10.37,2014-01-19 15:13:00,
2014-01-19 10:14:00,22.6,20.1,29.83,SW,236,7.3,11.5,90,0.00,CLR,,0.00,WeatherDisplay:10.37,2014-01-19 15:14:00,
2014-01-19 10:16:00,22.7,19.9,29.83,SW,232,7.8,9.2,89,0.00,CLR,,0.00,WeatherDisplay:10.37,2014-01-19 15:16:00,
2014-01-19 10:17:00,22.7,19.9,29.83,WSW,238,8.4,9.2,89,0.00,CLR,,0.00,WeatherDisplay:10.37,2014-01-19 15:17:00,
2014-01-19 10:19:00,22.8,20.0,29.83,SW,234,7.2,10.4,89,0.00,CLR,,0.00,WeatherDisplay:10.37,2014-01-19 15:19:00,
2014-01-19 10:20:00,22.8,20.0,29.83,WSW,244,9.0,13.0,89,0.00,CLR,,0.00,WeatherDisplay:10.37,2014-01-19 15:20:00,
2014-01-19 10:21:00,22.9,20.1,29.83,WSW,245,10.7,15.0,89,0.00,CLR,,0.00,WeatherDisplay:10.37,2014-01-19 15:21:00,
2014-01-19 10:23:00,22.9,20.1,29.83,SW,231,11.9,16.1,89,0.00,CLR,,0.00,WeatherDisplay:10.37,2014-01-19 15:23:00,
2014-01-19 10:25:00,22.9,20.1,29.84,WSW,245,12.1,19.6,89,0.00,CLR,,0.00,WeatherDisplay:10.37,2014-01-19 15:25:00,
2014-01-19 10:27:00,22.9,20.1,29.84,WSW,240,9.5,11.5,89,0.00,CLR,,0.00,WeatherDisplay:10.37,2014-01-19 15:27:00,
2014-01-19 10:28:00,22.9,20.1,29.84,WSW,240,8.2,11.5,89,0.00,CLR,,0.00,WeatherDisplay:10.37,2014-01-19 15:28:00,
2014-01-19 10:30:00,22.9,20.1,29.84,SW,235,7.0,20.0,89,0.00,CLR,,0.00,WeatherDisplay:10.37,2014-01-19 15:30:00,
2014-01-19 10:31:00,22.9,20.1,29.84,WSW,250,7.4,12.7,89,0.00,CLR,,0.00,WeatherDisplay:10.37,2014-01-19 15:31:00,
2014-01-19 10:32:00,22.9,20.1,29.84,WSW,257,8.6,12.7,89,0.00,CLR,,0.00,WeatherDisplay:10.37,2014-01-19 15:32:00,
2014-01-19 10:33:00,22.9,20.1,29.84,WSW,257,8.0,12.7,89,0.00,CLR,,0.00,WeatherDisplay:10.37,2014-01-19 15:33:00,
2014-01-19 10:36:00,23.0,20.2,29.84,WSW,238,7.6,12.0,89,0.00,CLR,,0.00,WeatherDisplay:10.37,2014-01-19 15:36:00,
2014-01-19 10:37:00,23.0,20.2,29.84,WSW,242,10.2,13.0,89,0.00,CLR,,0.00,WeatherDisplay:10.37,2014-01-19 15:37:00,
2014-01-19 10:38:00,23.0,20.2,29.84,SW,233,13.2,15.0,89,0.00,CLR,,0.00,WeatherDisplay:10.37,2014-01-19 15:38:00,
2014-01-19 10:42:00,23.1,20.3,29.83,SW,227,9.9,12.7,89,0.00,CLR,,0.00,WeatherDisplay:10.37,2014-01-19 15:42:00,
2014-01-19 10:43:00,23.1,20.3,29.83,WSW,248,5.9,11.0,89,0.00,CLR,,0.00,WeatherDisplay:10.37,2014-01-19 15:43:00,
2014-01-19 10:44:00,23.1,20.3,29.83,SW,227,12.3,15.0,89,0.00,CLR,,0.00,WeatherDisplay:10.37,2014-01-19 15:44:00,
2014-01-19 10:46:00,23.1,20.3,29.83,WSW,239,9.8,12.7,89,0.00,CLR,,0.00,WeatherDisplay:10.37,2014-01-19 15:46:00,
2014-01-19 10:48:00,23.2,20.4,29.83,WSW,241,11.0,13.8,89,0.00,CLR,,0.00,WeatherDisplay:10.37,2014-01-19 15:48:00,
2014-01-19 10:49:00,23.2,20.4,29.83,WSW,242,10.4,19.6,89,0.00,CLR,,0.00,WeatherDisplay:10.37,2014-01-19 15:49:00,
2014-01-19 10:50:00,23.2,20.4,29.84,SW,234,11.5,19.6,89,0.00,CLR,,0.00,WeatherDisplay:10.37,2014-01-19 15:50:00,
2014-01-19 10:51:00,23.3,20.5,29.83,West,262,7.6,11.5,89,0.00,CLR,,0.00,WeatherDisplay:10.37,2014-01-19 15:51:00,
2014-01-19 10:52:00,23.3,20.5,29.83,SW,232,6.9,11.5,89,0.00,CLR,,0.00,WeatherDisplay:10.37,2014-01-19 15:52:00,
2014-01-19 10:53:00,23.3,20.5,29.83,WSW,243,12.0,13.8,89,0.00,CLR,,0.00,WeatherDisplay:10.37,2014-01-19 15:53:00,
2014-01-19 10:55:00,23.4,20.6,29.83,SW,234,10.3,13.8,89,0.00,CLR,,0.00,WeatherDisplay:10.37,2014-01-19 15:55:00,
2014-01-19 10:56:00,23.4,20.6,29.83,WSW,238,8.3,11.5,89,0.00,CLR,,0.00,WeatherDisplay:10.37,2014-01-19 15:56:00,
2014-01-19 10:57:00,23.4,20.6,29.83,WSW,239,7.4,9.2,89,0.00,CLR,,0.00,WeatherDisplay:10.37,2014-01-19 15:57:00,
2014-01-19 10:58:00,23.5,20.7,29.83,WSW,248,7.8,10.4,89,0.00,CLR,,0.00,WeatherDisplay:10.37,2014-01-19 15:58:00,
2014-01-19 10:59:00,23.5,20.7,29.83,WSW,240,12.6,17.0,89,0.00,CLR,,0.00,WeatherDisplay:10.37,2014-01-19 15:59:00,
2014-01-19 11:02:00,23.7,20.7,29.83,WSW,246,7.7,12.7,88,0.00,CLR,,0.00,WeatherDisplay:10.37,2014-01-19 16:02:00,
2014-01-19 11:03:00,23.8,20.8,29.83,SW,236,9.6,13.8,88,0.00,CLR,,0.00,WeatherDisplay:10.37,2014-01-19 16:03:00,
2014-01-19 11:04:00,23.8,20.8,29.83,WSW,239,8.4,10.4,88,0.00,CLR,,0.00,WeatherDisplay:10.37,2014-01-19 16:04:00,
2014-01-19 11:05:00,23.8,20.8,29.83,West,265,8.7,10.4,88,0.00,CLR,,0.00,WeatherDisplay:10.37,2014-01-19 16:05:00,
2014-01-19 11:08:00,23.9,20.9,29.83,WSW,257,11.4,13.8,88,0.00,CLR,,0.00,WeatherDisplay:10.37,2014-01-19 16:08:00,
2014-01-19 11:09:00,24.0,20.7,29.83,WSW,254,15.8,19.6,87,0.00,CLR,,0.00,WeatherDisplay:10.37,2014-01-19 16:09:00,
2014-01-19 11:10:00,24.0,20.7,29.83,SSW,198,14.7,19.6,87,0.00,CLR,,0.00,WeatherDisplay:10.37,2014-01-19 16:10:00,
2014-01-19 11:12:00,23.9,20.6,29.83,WSW,255,12.9,17.3,87,0.00,CLR,,0.00,WeatherDisplay:10.37,2014-01-19 16:12:00,
2014-01-19 11:14:00,23.9,20.6,29.83,SW,230,13.2,18.4,87,0.00,CLR,,0.00,WeatherDisplay:10.37,2014-01-19 16:14:00,
2014-01-19 11:15:00,23.9,20.6,29.83,SW,232,14.3,18.4,87,0.00,CLR,,0.00,WeatherDisplay:10.37,2014-01-19 16:15:00,
2014-01-19 11:16:00,23.9,20.6,29.83,WSW,243,10.8,12.7,87,0.00,CLR,,0.00,WeatherDisplay:10.37,2014-01-19 16:16:00,
2014-01-19 11:17:00,24.0,20.7,29.82,SSE,167,12.4,19.6,87,0.00,CLR,,0.00,WeatherDisplay:10.37,2014-01-19 16:17:00,
2014-01-19 11:19:00,24.0,20.7,29.82,WSW,250,11.1,18.4,87,0.00,CLR,,0.00,WeatherDisplay:10.37,2014-01-19 16:19:00,
2014-01-19 11:20:00,24.0,20.7,29.82,WSW,242,10.4,13.8,87,0.00,CLR,,0.00,WeatherDisplay:10.37,2014-01-19 16:20:00,
2014-01-19 11:21:00,24.0,20.7,29.82,WSW,240,10.2,13.8,87,0.00,CLR,,0.00,WeatherDisplay:10.37,2014-01-19 16:21:00,
2014-01-19 11:22:00,24.1,20.8,29.82,WSW,252,10.5,15.0,87,0.00,CLR,,0.00,WeatherDisplay:10.37,2014-01-19 16:22:00,
2014-01-19 11:25:00,24.2,20.9,29.82,WSW,254,9.7,11.5,87,0.00,CLR,,0.00,WeatherDisplay:10.37,2014-01-19 16:25:00,
2014-01-19 11:26:00,24.4,21.1,29.82,SW,235,12.6,19.6,87,0.00,CLR,,0.00,WeatherDisplay:10.37,2014-01-19 16:26:00,
2014-01-19 11:27:00,24.5,21.2,29.82,WSW,254,11.1,12.7,87,0.00,CLR,,0.00,WeatherDisplay:10.37,2014-01-19 16:27:00,
2014-01-19 11:28:00,24.5,21.2,29.82,WNW,303,8.9,12.7,87,0.00,CLR,,0.00,WeatherDisplay:10.37,2014-01-19 16:28:00,
2014-01-19 11:29:00,24.6,21.3,29.82,SW,220,8.8,12.0,87,0.00,CLR,,0.00,WeatherDisplay:10.37,2014-01-19 16:29:00,
2014-01-19 11:32:00,24.7,21.1,29.82,West,278,14.8,21.9,86,0.00,CLR,,0.00,WeatherDisplay:10.37,2014-01-19 16:32:00,
2014-01-19 11:33:00,24.8,21.2,29.82,WSW,254,16.1,21.9,86,0.00,CLR,,0.00,WeatherDisplay:10.37,2014-01-19 16:33:00,
2014-01-19 11:35:00,24.8,20.9,29.82,WSW,257,14.6,19.6,85,0.00,CLR,,0.00,WeatherDisplay:10.37,2014-01-19 16:35:00,
2014-01-19 11:36:00,24.9,21.0,29.82,WSW,254,11.4,15.0,85,0.00,CLR,,0.00,WeatherDisplay:10.37,2014-01-19 16:36:00,
2014-01-19 11:38:00,24.9,21.3,29.82,WSW,252,10.3,13.8,86,0.00,CLR,,0.00,WeatherDisplay:10.37,2014-01-19 16:38:00,
2014-01-19 11:39:00,25.0,21.4,29.81,SW,219,10.1,17.0,86,0.00,CLR,,0.00,WeatherDisplay:10.37,2014-01-19 16:39:00,
2014-01-19 11:40:00,25.1,21.5,29.82,SW,228,12.5,15.0,86,0.00,CLR,,0.00,WeatherDisplay:10.37,2014-01-19 16:40:00,
2014-01-19 11:41:00,25.1,21.2,29.81,SW,234,13.3,17.3,85,0.00,CLR,,0.00,WeatherDisplay:10.37,2014-01-19 16:41:00,
2014-01-19 11:42:00,25.1,21.2,29.81,SW,232,13.1,17.3,85,0.00,CLR,,0.00,WeatherDisplay:10.37,2014-01-19 16:42:00,
2014-01-19 11:44:00,25.2,21.3,29.81,WSW,244,11.7,13.8,85,0.00,CLR,,0.00,WeatherDisplay:10.37,2014-01-19 16:44:00,
2014-01-19 11:47:00,25.3,21.1,29.81,WSW,250,14.1,18.4,84,0.00,CLR,,0.00,WeatherDisplay:10.37,2014-01-19 16:47:00,
2014-01-19 11:48:00,25.3,21.1,29.82,WSW,243,15.1,20.0,84,0.00,CLR,,0.00,WeatherDisplay:10.37,2014-01-19 16:48:00,
2014-01-19 11:49:00,25.3,21.1,29.82,WSW,253,16.9,25.3,84,0.00,CLR,,0.00,WeatherDisplay:10.37,2014-01-19 16:49:00,
2014-01-19 11:50:00,25.3,21.1,29.82,WSW,248,16.0,25.0,84,0.00,CLR,,0.00,WeatherDisplay:10.37,2014-01-19 16:50:00,
2014-01-19 11:53:00,25.2,21.0,29.81,SSW,209,10.6,15.0,84,0.00,CLR,,0.00,WeatherDisplay:10.37,2014-01-19 16:53:00,
2014-01-19 11:55:00,25.3,21.1,29.81,SSW,204,12.6,17.3,84,0.00,CLR,,0.00,WeatherDisplay:10.37,2014-01-19 16:55:00,
2014-01-19 12:00:00,25.5,21.1,29.80,WSW,254,10.8,15.0,83,0.00,CLR,,0.00,WeatherDisplay:10.37,2014-01-19 17:00:00,
2014-01-19 12:04:00,25.6,21.2,29.80,SW,227,12.9,15.0,83,0.00,CLR,,0.00,WeatherDisplay:10.37,2014-01-19 17:04:00,
2014-01-19 12:05:00,25.6,21.2,29.80,SW,215,14.3,18.0,83,0.00,CLR,,0.00,WeatherDisplay:10.37,2014-01-19 17:05:00,
2014-01-19 12:06:00,25.6,21.2,29.80,SW,220,11.3,21.9,83,0.00,CLR,,0.00,WeatherDisplay:10.37,2014-01-19 17:06:00,
2014-01-19 12:08:00,25.6,21.2,29.80,WSW,248,12.1,17.3,83,0.00,CLR,,0.00,WeatherDisplay:10.37,2014-01-19 17:08:00,
2014-01-19 12:09:00,25.6,21.2,29.80,WSW,241,12.1,17.3,83,0.00,CLR,,0.00,WeatherDisplay:10.37,2014-01-19 17:09:00,
2014-01-19 12:10:00,25.6,21.2,29.80,WSW,246,9.9,13.8,83,0.00,CLR,,0.00,WeatherDisplay:10.37,2014-01-19 17:10:00,
2014-01-19 12:12:00,25.7,21.3,29.80,WSW,240,19.9,23.0,83,0.00,CLR,,0.00,WeatherDisplay:10.37,2014-01-19 17:12:00,
2014-01-19 12:13:00,25.6,20.9,29.80,SW,230,11.9,23.0,82,0.00,CLR,,0.00,WeatherDisplay:10.37,2014-01-19 17:13:00,
2014-01-19 12:14:00,25.6,21.2,29.80,WSW,245,12.2,17.3,83,0.00,CLR,,0.00,WeatherDisplay:10.37,2014-01-19 17:14:00,
2014-01-19 12:15:00,25.6,21.2,29.80,West,259,12.2,15.0,83,0.00,CLR,,0.00,WeatherDisplay:10.37,2014-01-19 17:15:00,
2014-01-19 12:17:00,25.6,21.2,29.79,West,259,14.6,18.4,83,0.00,CLR,,0.00,WeatherDisplay:10.37,2014-01-19 17:17:00,
2014-01-19 12:18:00,25.6,21.2,29.79,WSW,237,14.7,19.0,83,0.00,CLR,,0.00,WeatherDisplay:10.37,2014-01-19 17:18:00,
2014-01-19 12:20:00,25.5,20.8,29.80,WSW,240,12.0,23.0,82,0.00,CLR,,0.00,WeatherDisplay:10.37,2014-01-19 17:20:00,
2014-01-19 12:21:00,25.5,21.1,29.79,WSW,240,14.9,17.3,83,0.00,CLR,,0.00,WeatherDisplay:10.37,2014-01-19 17:21:00,
2014-01-19 12:22:00,25.5,20.8,29.79,SW,227,15.3,17.3,82,0.00,CLR,,0.00,WeatherDisplay:10.37,2014-01-19 17:22:00,
2014-01-19 12:23:00,25.5,20.8,29.79,WSW,238,14.3,19.6,82,0.00,CLR,,0.00,WeatherDisplay:10.37,2014-01-19 17:23:00,
2014-01-19 12:25:00,25.5,20.8,29.79,SW,226,13.0,16.1,82,0.00,CLR,,0.00,WeatherDisplay:10.37,2014-01-19 17:25:00,
2014-01-19 12:26:00,25.6,20.9,29.79,SW,236,14.2,16.1,82,0.00,CLR,,0.00,WeatherDisplay:10.37,2014-01-19 17:26:00,
2014-01-19 12:27:00,25.6,20.9,29.79,WSW,244,13.3,16.1,82,0.00,CLR,,0.00,WeatherDisplay:10.37,2014-01-19 17:27:00,
2014-01-19 12:28:00,25.6,20.9,29.79,WSW,238,9.5,18.4,82,0.00,CLR,,0.00,WeatherDisplay:10.37,2014-01-19 17:28:00,
2014-01-19 12:29:00,25.6,20.9,29.79,SW,234,12.0,17.3,82,0.00,CLR,,0.00,WeatherDisplay:10.37,2014-01-19 17:29:00,
2014-01-19 12:30:00,25.6,20.9,29.79,SW,232,13.5,20.7,82,0.00,CLR,,0.00,WeatherDisplay:10.37,2014-01-19 17:30:00,
2014-01-19 12:33:00,25.7,21.0,29.78,WSW,243,13.7,16.0,82,0.00,CLR,,0.00,WeatherDisplay:10.37,2014-01-19 17:33:00,
2014-01-19 12:35:00,25.8,21.1,29.78,West,264,15.7,18.4,82,0.00,CLR,,0.00,WeatherDisplay:10.37,2014-01-19 17:35:00,
2014-01-19 12:36:00,25.8,21.1,29.78,WSW,248,17.1,21.9,82,0.00,CLR,,0.00,WeatherDisplay:10.37,2014-01-19 17:36:00,
2014-01-19 12:38:00,25.9,21.2,29.78,West,270,16.3,17.3,82,0.00,CLR,,0.00,WeatherDisplay:10.37,2014-01-19 17:38:00,
2014-01-19 12:39:00,26.0,21.3,29.78,WSW,255,15.2,20.7,82,0.00,CLR,,0.00,WeatherDisplay:10.37,2014-01-19 17:39:00,
2014-01-19 12:40:00,26.0,21.3,29.78,SSW,213,13.4,20.7,82,0.00,CLR,,0.00,WeatherDisplay:10.37,2014-01-19 17:40:00,
2014-01-19 12:41:00,26.1,21.4,29.78,WSW,247,9.1,11.5,82,0.00,CLR,,0.00,WeatherDisplay:10.37,2014-01-19 17:41:00,
2014-01-19 12:44:00,26.4,21.7,29.78,WSW,252,13.2,19.6,82,0.00,CLR,,0.00,WeatherDisplay:10.37,2014-01-19 17:44:00,
2014-01-19 12:45:00,26.5,21.7,29.78,West,266,10.3,12.0,82,0.00,CLR,,0.00,WeatherDisplay:10.37,2014-01-19 17:45:00,
2014-01-19 12:47:00,26.7,21.7,29.77,SW,217,13.0,21.9,81,0.00,CLR,,0.00,WeatherDisplay:10.37,2014-01-19 17:47:00,
2014-01-19 12:48:00,26.8,21.8,29.77,WSW,238,12.2,21.9,81,0.00,CLR,,0.00,WeatherDisplay:10.37,2014-01-19 17:48:00,
2014-01-19 12:50:00,26.9,21.9,29.77,SW,236,14.0,22.0,81,0.00,CLR,,0.00,WeatherDisplay:10.37,2014-01-19 17:50:00,
2014-01-19 12:51:00,27.0,21.9,29.77,West,259,9.0,11.5,81,0.00,CLR,,0.00,WeatherDisplay:10.37,2014-01-19 17:51:00,
2014-01-19 12:52:00,27.1,22.0,29.77,SW,231,7.8,14.0,81,0.00,CLR,,0.00,WeatherDisplay:10.37,2014-01-19 17:52:00,
2014-01-19 12:55:00,27.4,22.0,29.78,West,262,12.5,17.0,80,0.00,CLR,,0.00,WeatherDisplay:10.37,2014-01-19 17:55:00,
2014-01-19 12:56:00,27.5,22.1,29.77,West,266,14.1,17.3,80,0.00,CLR,,0.00,WeatherDisplay:10.37,2014-01-19 17:56:00,
2014-01-19 12:58:00,27.5,21.8,29.77,WSW,240,17.5,20.7,79,0.00,,,0.00,WeatherDisplay:10.37,2014-01-19 17:58:00,
2014-01-19 13:01:00,27.5,21.8,29.77,West,261,11.8,14.0,79,0.00,,,0.00,WeatherDisplay:10.37,2014-01-19 18:01:00,
2014-01-19 13:02:00,27.5,21.8,29.77,WSW,250,13.1,13.1,79,0.00,,,0.00,WeatherDisplay:10.37,2014-01-19 18:02:00,
2014-01-19 13:03:00,27.5,21.8,29.77,WSW,257,9.8,16.1,79,0.00,,,0.00,WeatherDisplay:10.37,2014-01-19 18:03:00,
2014-01-19 13:04:00,27.5,21.8,29.77,WSW,248,12.1,16.1,79,0.00,,,0.00,WeatherDisplay:10.37,2014-01-19 18:04:00,
2014-01-19 13:07:00,27.6,21.9,29.77,SW,236,12.4,20.7,79,0.00,,,0.00,WeatherDisplay:10.37,2014-01-19 18:07:00,
2014-01-19 13:08:00,27.6,21.6,29.77,WSW,242,13.0,20.7,78,0.00,,,0.00,WeatherDisplay:10.37,2014-01-19 18:08:00,
2014-01-19 13:09:00,27.8,22.1,29.77,SW,229,13.7,18.4,79,0.00,,,0.00,WeatherDisplay:10.37,2014-01-19 18:09:00,
2014-01-19 13:10:00,27.9,22.2,29.77,SW,236,12.8,18.4,79,0.00,,,0.00,WeatherDisplay:10.37,2014-01-19 18:10:00,
2014-01-19 13:11:00,28.0,22.3,29.77,WSW,240,6.7,8.1,79,0.00,,,0.00,WeatherDisplay:10.37,2014-01-19 18:11:00,
2014-01-19 13:13:00,28.4,22.7,29.77,WSW,248,13.8,17.3,79,0.00,,,0.00,WeatherDisplay:10.37,2014-01-19 18:13:00,
2014-01-19 13:15:00,28.5,22.5,29.77,WSW,241,14.9,19.6,78,0.00,,,0.00,WeatherDisplay:10.37,2014-01-19 18:15:00,
2014-01-19 13:16:00,28.5,22.2,29.76,WSW,253,12.3,16.1,77,0.00,,,0.00,WeatherDisplay:10.37,2014-01-19 18:16:00,
2014-01-19 13:17:00,28.5,22.2,29.76,WSW,248,14.5,19.0,77,0.00,,,0.00,WeatherDisplay:10.37,2014-01-19 18:17:00,
2014-01-19 13:20:00,28.6,22.3,29.76,SW,229,16.0,20.7,77,0.00,,,0.00,WeatherDisplay:10.37,2014-01-19 18:20:00,
2014-01-19 13:21:00,28.6,22.3,29.76,SW,217,15.0,18.4,77,0.00,,,0.00,WeatherDisplay:10.37,2014-01-19 18:21:00,
2014-01-19 13:22:00,28.7,22.4,29.75,WSW,254,12.9,18.4,77,0.00,,,0.00,WeatherDisplay:10.37,2014-01-19 18:22:00,
2014-01-19 13:23:00,28.7,22.4,29.76,SSW,206,8.5,18.4,77,0.00,,,0.00,WeatherDisplay:10.37,2014-01-19 18:23:00,
2014-01-19 13:25:00,28.8,22.2,29.76,West,259,18.1,21.9,76,0.00,,,0.00,WeatherDisplay:10.37,2014-01-19 18:25:00,
2014-01-19 13:26:00,28.7,22.1,29.76,WSW,250,20.1,24.2,76,0.00,,,0.00,WeatherDisplay:10.37,2014-01-19 18:26:00,
2014-01-19 13:27:00,28.7,22.1,29.76,SW,225,14.9,19.6,76,0.00,,,0.00,WeatherDisplay:10.37,2014-01-19 18:27:00,
2014-01-19 13:28:00,28.7,22.1,29.76,WSW,254,16.5,21.0,76,0.00,,,0.00,WeatherDisplay:10.37,2014-01-19 18:28:00,
2014-01-19 13:30:00,28.7,22.1,29.75,WSW,253,16.0,22.0,76,0.00,,,0.00,WeatherDisplay:10.37,2014-01-19 18:30:00,
2014-01-19 13:31:00,28.7,22.1,29.75,WSW,239,18.8,24.2,76,0.00,,,0.00,WeatherDisplay:10.37,2014-01-19 18:31:00,
2014-01-19 13:32:00,28.7,22.1,29.75,WSW,240,14.7,20.7,76,0.00,,,0.00,WeatherDisplay:10.37,2014-01-19 18:32:00,
2014-01-19 13:33:00,28.7,22.1,29.75,West,267,12.5,20.7,76,0.00,,,0.00,WeatherDisplay:10.37,2014-01-19 18:33:00,
2014-01-19 13:34:00,28.8,22.2,29.75,SW,214,7.8,12.7,76,0.00,,,0.00,WeatherDisplay:10.37,2014-01-19 18:34:00,
2014-01-19 13:37:00,28.9,22.3,29.75,SW,232,13.1,19.6,76,0.00,,,0.00,WeatherDisplay:10.37,2014-01-19 18:37:00,
2014-01-19 13:38:00,29.0,22.4,29.75,WSW,250,13.8,19.6,76,0.01,RA,,0.01,WeatherDisplay:10.37,2014-01-19 18:38:00,
2014-01-19 13:39:00,29.0,22.4,29.75,WSW,243,11.4,16.1,76,0.01,RA,,0.01,WeatherDisplay:10.37,2014-01-19 18:39:00,
2014-01-19 13:40:00,29.0,22.4,29.75,SW,230,10.5,19.0,76,0.01,RA,,0.01,WeatherDisplay:10.37,2014-01-19 18:40:00,
2014-01-19 13:41:00,29.0,22.1,29.75,WSW,246,13.8,22.0,75,0.01,RA,,0.01,WeatherDisplay:10.37,2014-01-19 18:41:00,
2014-01-19 13:43:00,29.0,22.1,29.75,SW,232,18.2,21.9,75,0.01,RA,,0.01,WeatherDisplay:10.37,2014-01-19 18:43:00,
2014-01-19 13:44:00,29.0,22.1,29.75,WSW,254,12.8,21.9,75,0.01,RA,,0.01,WeatherDisplay:10.37,2014-01-19 18:44:00,
2014-01-19 13:46:00,29.1,22.2,29.75,WSW,258,15.3,20.7,75,0.01,RA,,0.01,WeatherDisplay:10.37,2014-01-19 18:46:00,
2014-01-19 13:47:00,29.1,22.2,29.75,SW,236,20.1,23.0,75,0.01,RA,,0.01,WeatherDisplay:10.37,2014-01-19 18:47:00,
2014-01-19 13:49:00,29.2,22.3,29.75,SW,232,16.0,21.9,75,0.01,,,0.01,WeatherDisplay:10.37,2014-01-19 18:49:00,
2014-01-19 13:50:00,29.2,22.3,29.75,WSW,244,17.9,21.9,75,0.01,,,0.01,WeatherDisplay:10.37,2014-01-19 18:50:00,
2014-01-19 13:53:00,29.3,22.0,29.75,West,271,14.4,23.0,74,0.01,,,0.01,WeatherDisplay:10.37,2014-01-19 18:53:00,
2014-01-19 13:54:00,29.4,22.5,29.75,SW,230,14.6,17.3,75,0.01,,,0.01,WeatherDisplay:10.37,2014-01-19 18:54:00,
2014-01-19 13:55:00,29.5,22.6,29.75,SW,233,12.0,17.3,75,0.01,,,0.01,WeatherDisplay:10.37,2014-01-19 18:55:00,
2014-01-19 13:57:00,29.5,22.2,29.75,SW,236,16.7,19.6,74,0.01,,,0.01,WeatherDisplay:10.37,2014-01-19 18:57:00,
2014-01-19 13:59:00,29.6,22.3,29.75,WSW,252,14.7,19.6,74,0.01,,,0.01,WeatherDisplay:10.37,2014-01-19 18:59:00,
2014-01-19 14:00:00,29.6,22.3,29.74,SW,220,15.4,20.7,74,0.01,,,0.01,WeatherDisplay:10.37,2014-01-19 19:00:00,
2014-01-19 14:01:00,29.6,22.3,29.74,WSW,240,14.6,19.6,74,0.01,,,0.01,WeatherDisplay:10.37,2014-01-19 19:01:00,
2014-01-19 14:04:00,29.6,22.3,29.75,SW,222,17.4,21.9,74,0.01,,,0.01,WeatherDisplay:10.37,2014-01-19 19:04:00,
2014-01-19 14:06:00,29.6,22.0,29.74,WSW,240,14.8,19.6,73,0.01,,,0.01,WeatherDisplay:10.37,2014-01-19 19:06:00,
2014-01-19 14:07:00,29.6,22.3,29.75,WSW,247,13.3,19.6,74,0.01,,,0.01,WeatherDisplay:10.37,2014-01-19 19:07:00,
2014-01-19 14:10:00,29.6,22.0,29.74,West,259,13.8,21.9,73,0.01,,,0.01,WeatherDisplay:10.37,2014-01-19 19:10:00,
2014-01-19 14:11:00,29.6,22.0,29.74,WSW,254,14.8,19.6,73,0.01,,,0.01,WeatherDisplay:10.37,2014-01-19 19:11:00,
2014-01-19 14:12:00,29.7,22.1,29.74,West,263,19.0,19.6,73,0.01,,,0.01,WeatherDisplay:10.37,2014-01-19 19:12:00,
2014-01-19 14:13:00,29.7,22.1,29.74,WSW,250,16.2,25.3,73,0.01,,,0.01,WeatherDisplay:10.37,2014-01-19 19:13:00,
2014-01-19 14:14:00,29.8,22.2,29.74,SW,227,11.0,15.0,73,0.01,CLR,,0.01,WeatherDisplay:10.37,2014-01-19 19:14:00,
2014-01-19 14:17:00,30.0,22.4,29.74,WSW,256,14.1,19.6,73,0.01,,,0.01,WeatherDisplay:10.37,2014-01-19 19:17:00,
2014-01-19 14:18:00,30.0,22.4,29.75,WSW,241,12.0,15.0,73,0.01,,,0.01,WeatherDisplay:10.37,2014-01-19 19:18:00,
2014-01-19 14:19:00,30.0,22.4,29.75,SW,235,10.4,11.5,73,0.01,,,0.01,WeatherDisplay:10.37,2014-01-19 19:19:00,
2014-01-19 14:20:00,30.1,22.5,29.75,WSW,240,8.9,11.5,73,0.01,,,0.01,WeatherDisplay:10.37,2014-01-19 19:20:00,
2014-01-19 14:22:00,30.1,22.5,29.74,SW,232,14.0,16.1,73,0.01,,,0.01,WeatherDisplay:10.37,2014-01-19 19:22:00,
2014-01-19 14:23:00,30.1,22.5,29.74,WSW,237,11.7,14.0,73,0.01,,,0.01,WeatherDisplay:10.37,2014-01-19 19:23:00,
2014-01-19 14:25:00,30.1,22.2,29.74,SW,234,17.0,26.5,72,0.01,,,0.01,WeatherDisplay:10.37,2014-01-19 19:25:00,
2014-01-19 14:26:00,30.1,22.2,29.74,SW,222,16.6,20.7,72,0.01,,,0.01,WeatherDisplay:10.37,2014-01-19 19:26:00,
2014-01-19 14:27:00,30.1,22.2,29.75,SW,221,14.9,20.7,72,0.01,,,0.01,WeatherDisplay:10.37,2014-01-19 19:27:00,
2014-01-19 14:30:00,30.1,22.5,29.75,SW,236,13.0,26.0,73,0.00,,,0.01,WeatherDisplay:10.37,2014-01-19 19:30:00,
2014-01-19 14:31:00,30.1,22.2,29.74,WSW,238,14.3,18.4,72,0.01,,,0.01,WeatherDisplay:10.37,2014-01-19 19:31:00,
2014-01-19 14:32:00,30.1,22.5,29.74,WSW,255,16.9,19.0,73,0.01,,,0.01,WeatherDisplay:10.37,2014-01-19 19:32:00,
2014-01-19 14:33:00,30.1,22.2,29.74,SW,217,16.9,21.9,72,0.01,,,0.01,WeatherDisplay:10.37,2014-01-19 19:33:00,
2014-01-19 14:35:00,30.0,22.1,29.74,SW,219,18.6,23.0,72,0.01,,,0.01,WeatherDisplay:10.37,2014-01-19 19:35:00,
2014-01-19 14:36:00,30.0,22.1,29.74,SW,231,18.7,23.0,72,0.01,,,0.01,WeatherDisplay:10.37,2014-01-19 19:36:00,
2014-01-19 14:38:00,29.9,22.0,29.74,WSW,237,12.9,18.4,72,0.00,,,0.01,WeatherDisplay:10.37,2014-01-19 19:38:00,
2014-01-19 14:39:00,29.9,22.0,29.74,SW,236,12.1,18.4,72,0.00,,,0.01,WeatherDisplay:10.37,2014-01-19 19:39:00,
2014-01-19 14:40:00,30.0,22.1,29.74,SW,235,15.1,17.0,72,0.00,,,0.01,WeatherDisplay:10.37,2014-01-19 19:40:00,
2014-01-19 14:42:00,30.0,22.1,29.73,WSW,238,18.9,26.5,72,0.00,,,0.01,WeatherDisplay:10.37,2014-01-19 19:42:00,
2014-01-19 14:43:00,30.0,22.1,29.73,WSW,242,12.2,17.3,72,0.00,CLR,,0.01,WeatherDisplay:10.37,2014-01-19 19:43:00,
2014-01-19 14:45:00,30.1,22.2,29.73,WSW,250,12.5,16.1,72,0.00,,,0.01,WeatherDisplay:10.37,2014-01-19 19:45:00,
2014-01-19 14:46:00,30.1,22.2,29.73,WSW,241,14.2,19.6,72,0.00,,,0.01,WeatherDisplay:10.37,2014-01-19 19:46:00,
2014-01-19 14:47:00,30.1,22.2,29.73,WSW,244,14.5,20.7,72,0.00,,,0.01,WeatherDisplay:10.37,2014-01-19 19:47:00,
2014-01-19 14:48:00,30.1,21.8,29.73,SW,231,18.1,21.9,71,0.00,,,0.01,WeatherDisplay:10.37,2014-01-19 19:48:00,
2014-01-19 14:50:00,30.1,21.8,29.73,WSW,242,13.3,21.9,71,0.00,,,0.01,WeatherDisplay:10.37,2014-01-19 19:50:00,
2014-01-19 14:51:00,30.1,21.8,29.73,WSW,248,13.4,19.6,71,0.00,,,0.01,WeatherDisplay:10.37,2014-01-19 19:51:00,
2014-01-19 14:55:00,30.1,22.2,29.73,SW,220,14.1,21.9,72,0.00,,,0.01,WeatherDisplay:10.37,2014-01-19 19:55:00,
2014-01-19 14:56:00,30.1,22.2,29.73,SW,233,15.6,19.6,72,0.00,,,0.01,WeatherDisplay:10.37,2014-01-19 19:56:00,
2014-01-19 14:57:00,30.1,22.2,29.73,WSW,244,11.1,19.6,72,0.00,,,0.01,WeatherDisplay:10.37,2014-01-19 19:57:00,
2014-01-19 15:00:00,30.2,22.3,29.73,SSE,150,11.2,12.7,72,0.00,,,0.01,WeatherDisplay:10.37,2014-01-19 20:00:00,
2014-01-19 15:01:00,30.2,22.3,29.73,WSW,249,13.5,26.5,72,0.00,,,0.01,WeatherDisplay:10.37,2014-01-19 20:01:00,
2014-01-19 15:02:00,30.2,22.3,29.73,WSW,248,14.7,19.6,72,0.00,,,0.01,WeatherDisplay:10.37,2014-01-19 20:02:00,
2014-01-19 15:03:00,30.3,22.4,29.73,SSW,211,13.0,19.6,72,0.00,,,0.01,WeatherDisplay:10.37,2014-01-19 20:03:00,
2014-01-19 15:04:00,30.3,22.4,29.73,SW,224,16.4,20.7,72,0.00,,,0.01,WeatherDisplay:10.37,2014-01-19 20:04:00,
2014-01-19 15:06:00,30.4,22.1,29.73,SW,232,10.5,15.0,71,0.00,,,0.01,WeatherDisplay:10.37,2014-01-19 20:06:00,
2014-01-19 15:07:00,30.4,22.1,29.73,WSW,248,18.0,21.0,71,0.00,,,0.01,WeatherDisplay:10.37,2014-01-19 20:07:00,
2014-01-19 15:08:00,30.4,22.1,29.73,SSW,209,19.6,21.9,71,0.00,,,0.01,WeatherDisplay:10.37,2014-01-19 20:08:00,
2014-01-19 15:10:00,30.5,22.2,29.73,WSW,252,15.2,25.3,71,0.00,,,0.01,WeatherDisplay:10.37,2014-01-19 20:10:00,
2014-01-19 15:11:00,30.5,22.2,29.73,WSW,246,14.0,21.9,71,0.00,,,0.01,WeatherDisplay:10.37,2014-01-19 20:11:00,
2014-01-19 15:13:00,30.6,22.3,29.73,SW,231,18.9,23.0,71,0.00,,,0.01,WeatherDisplay:10.37,2014-01-19 20:13:00,
2014-01-19 15:14:00,30.6,22.3,29.73,WNW,288,13.4,23.0,71,0.00,,,0.01,WeatherDisplay:10.37,2014-01-19 20:14:00,
2014-01-19 15:16:00,30.7,22.4,29.73,SW,228,12.9,18.4,71,0.00,,,0.01,WeatherDisplay:10.37,2014-01-19 20:16:00,
2014-01-19 15:17:00,30.8,22.5,29.73,WSW,246,15.1,18.4,71,0.00,,,0.01,WeatherDisplay:10.37,2014-01-19 20:17:00,
2014-01-19 15:18:00,30.8,22.5,29.73,West,270,17.6,23.0,71,0.00,,,0.01,WeatherDisplay:10.37,2014-01-19 20:18:00,
2014-01-19 15:19:00,30.9,22.3,29.73,WSW,238,12.8,18.4,70,0.00,,,0.01,WeatherDisplay:10.37,2014-01-19 20:19:00,
2014-01-19 15:21:00,31.0,22.7,29.73,SW,234,10.3,13.8,71,0.00,,,0.01,WeatherDisplay:10.37,2014-01-19 20:21:00,
2014-01-19 15:24:00,31.1,22.5,29.73,WSW,248,10.5,21.9,70,0.00,,,0.01,WeatherDisplay:10.37,2014-01-19 20:24:00,
2014-01-19 15:25:00,31.2,22.5,29.73,WSW,240,10.6,23.0,70,0.00,,,0.01,WeatherDisplay:10.37,2014-01-19 20:25:00,
2014-01-19 15:26:00,31.2,22.5,29.73,SW,226,15.3,19.6,70,0.00,,,0.01,WeatherDisplay:10.37,2014-01-19 20:26:00,
2014-01-19 15:28:00,31.2,22.5,29.73,WNW,284,14.9,19.6,70,0.00,,,0.01,WeatherDisplay:10.37,2014-01-19 20:28:00,
2014-01-19 15:29:00,31.2,22.5,29.73,WSW,248,11.5,20.7,70,0.00,,,0.01,WeatherDisplay:10.37,2014-01-19 20:29:00,
2014-01-19 15:30:00,31.2,22.5,29.73,SW,232,13.0,16.1,70,0.00,,,0.01,WeatherDisplay:10.37,2014-01-19 20:30:00,
2014-01-19 15:32:00,31.2,22.5,29.74,SW,235,12.7,19.6,70,0.00,,,0.01,WeatherDisplay:10.37,2014-01-19 20:32:00,
2014-01-19 15:33:00,31.3,22.6,29.74,WSW,244,12.0,17.3,70,0.00,,,0.01,WeatherDisplay:10.37,2014-01-19 20:33:00,
2014-01-19 15:35:00,31.2,22.2,29.74,WSW,254,17.3,21.0,69,0.00,,,0.01,WeatherDisplay:10.37,2014-01-19 20:35:00,
2014-01-19 15:38:00,31.1,22.5,29.74,WSW,248,15.1,26.5,70,0.00,,,0.01,WeatherDisplay:10.37,2014-01-19 20:38:00,
2014-01-19 15:39:00,31.1,22.5,29.74,WSW,250,11.4,18.4,70,0.00,,,0.01,WeatherDisplay:10.37,2014-01-19 20:39:00,
2014-01-19 15:43:00,31.0,22.4,29.74,WSW,248,11.3,18.0,70,0.00,,,0.01,WeatherDisplay:10.37,2014-01-19 20:43:00,
2014-01-19 15:44:00,31.0,22.0,29.74,SW,227,19.5,25.3,69,0.00,,,0.01,WeatherDisplay:10.37,2014-01-19 20:44:00,
2014-01-19 15:45:00,30.9,21.9,29.74,West,260,17.5,20.7,69,0.00,,,0.01,WeatherDisplay:10.37,2014-01-19 20:45:00,
2014-01-19 15:46:00,30.9,21.9,29.74,SW,232,13.0,16.1,69,0.00,,,0.01,WeatherDisplay:10.37,2014-01-19 20:46:00,
2014-01-19 15:48:00,30.8,22.2,29.74,WSW,253,10.6,17.3,70,0.00,,,0.01,WeatherDisplay:10.37,2014-01-19 20:48:00,
2014-01-19 15:49:00,30.8,22.2,29.74,SW,232,12.5,23.0,70,0.00,,,0.01,WeatherDisplay:10.37,2014-01-19 20:49:00,
2014-01-19 15:50:00,30.8,22.2,29.74,WSW,243,14.0,25.0,70,0.00,,,0.01,WeatherDisplay:10.37,2014-01-19 20:50:00,
2014-01-19 15:51:00,30.8,21.8,29.74,SW,235,16.1,26.5,69,0.00,,,0.01,WeatherDisplay:10.37,2014-01-19 20:51:00,
2014-01-19 15:53:00,30.7,21.7,29.74,West,263,17.2,24.2,69,0.00,,,0.01,WeatherDisplay:10.37,2014-01-19 20:53:00,
2014-01-19 15:54:00,30.7,22.1,29.74,WNW,290,14.9,19.6,70,0.00,,,0.01,WeatherDisplay:10.37,2014-01-19 20:54:00,
2014-01-19 15:55:00,30.7,22.1,29.74,WSW,252,15.0,19.6,70,0.00,,,0.01,WeatherDisplay:10.37,2014-01-19 20:55:00,
2014-01-19 15:56:00,30.6,22.0,29.74,WSW,250,11.4,18.4,70,0.00,,,0.01,WeatherDisplay:10.37,2014-01-19 20:56:00,
2014-01-19 15:59:00,30.5,21.9,29.74,West,273,12.4,21.0,70,0.00,,,0.01,WeatherDisplay:10.37,2014-01-19 20:59:00,
2014-01-19 16:00:00,30.5,21.9,29.75,SW,234,14.8,18.4,70,0.00,,,0.01,WeatherDisplay:10.37,2014-01-19 21:00:00,
2014-01-19 16:02:00,30.5,21.9,29.74,WSW,239,12.5,24.2,70,0.00,,,0.01,WeatherDisplay:10.37,2014-01-19 21:02:00,
2014-01-19 16:04:00,30.6,22.0,29.74,WSW,244,16.2,20.7,70,0.00,,,0.01,WeatherDisplay:10.37,2014-01-19 21:04:00,
2014-01-19 16:05:00,30.6,22.0,29.75,SW,233,12.7,18.4,70,0.00,,,0.01,WeatherDisplay:10.37,2014-01-19 21:05:00,
2014-01-19 16:06:00,30.6,22.0,29.75,WSW,253,14.7,19.6,70,0.00,,,0.01,WeatherDisplay:10.37,2014-01-19 21:06:00,
2014-01-19 16:07:00,30.6,22.0,29.75,SW,236,14.4,19.6,70,0.00,,,0.01,WeatherDisplay:10.37,2014-01-19 21:07:00,
2014-01-19 16:08:00,30.6,22.0,29.75,SW,219,12.1,15.0,70,0.00,,,0.01,WeatherDisplay:10.37,2014-01-19 21:08:00,
2014-01-19 16:11:00,30.6,22.0,29.74,WSW,250,14.2,19.6,70,0.00,,,0.01,WeatherDisplay:10.37,2014-01-19 21:11:00,
2014-01-19 16:12:00,30.6,22.0,29.75,WSW,251,17.9,19.6,70,0.00,,,0.01,WeatherDisplay:10.37,2014-01-19 21:12:00,
2014-01-19 16:13:00,30.6,21.6,29.75,West,264,17.4,24.2,69,0.00,,,0.01,WeatherDisplay:10.37,2014-01-19 21:13:00,
2014-01-19 16:15:00,30.7,21.7,29.75,WSW,242,15.3,21.9,69,0.00,,,0.01,WeatherDisplay:10.37,2014-01-19 21:15:00,
2014-01-19 16:16:00,30.7,22.1,29.75,SW,228,13.0,19.0,70,0.00,,,0.01,WeatherDisplay:10.37,2014-01-19 21:16:00,
2014-01-19 16:18:00,30.7,22.1,29.75,WSW,238,11.9,19.6,70,0.00,,,0.01,WeatherDisplay:10.37,2014-01-19 21:18:00,
2014-01-19 16:20:00,30.7,22.1,29.75,West,269,7.8,11.0,70,0.00,,,0.01,WeatherDisplay:10.37,2014-01-19 21:20:00,
2014-01-19 16:22:00,30.7,22.1,29.75,WSW,243,11.6,16.1,70,0.00,,,0.01,WeatherDisplay:10.37,2014-01-19 21:22:00,
2014-01-19 16:23:00,30.7,22.1,29.75,WSW,249,15.1,19.6,70,0.00,CLR,,0.01,WeatherDisplay:10.37,2014-01-19 21:23:00,
2014-01-19 16:28:00,30.8,22.2,29.75,West,267,9.0,15.0,70,0.00,,,0.01,WeatherDisplay:10.37,2014-01-19 21:28:00,
2014-01-19 16:29:00,30.8,22.2,29.75,WSW,251,13.0,17.3,70,0.00,,,0.01,WeatherDisplay:10.37,2014-01-19 21:29:00,
2014-01-19 16:30:00,30.8,22.2,29.75,WSW,244,13.0,23.0,70,0.00,,,0.01,WeatherDisplay:10.37,2014-01-19 21:30:00,
2014-01-19 16:34:00,30.8,22.2,29.75,WSW,248,17.4,21.9,70,0.00,,,0.01,WeatherDisplay:10.37,2014-01-19 21:34:00,
2014-01-19 16:35:00,30.8,21.8,29.76,WSW,250,16.0,21.9,69,0.00,,,0.01,WeatherDisplay:10.37,2014-01-19 21:35:00,
2014-01-19 16:36:00,30.9,22.3,29.76,WSW,253,18.6,23.0,70,0.00,,,0.01,WeatherDisplay:10.37,2014-01-19 21:36:00,
2014-01-19 16:37:00,30.9,22.3,29.75,WSW,246,19.3,27.6,70,0.00,,,0.01,WeatherDisplay:10.37,2014-01-19 21:37:00,
2014-01-19 16:39:00,30.9,22.3,29.75,SW,215,18.7,26.5,70,0.00,,,0.01,WeatherDisplay:10.37,2014-01-19 21:39:00,
2014-01-19 16:40:00,30.9,22.3,29.75,WSW,250,19.4,24.2,70,0.00,,,0.01,WeatherDisplay:10.37,2014-01-19 21:40:00,
2014-01-19 16:41:00,30.9,22.3,29.76,SW,236,16.7,23.0,70,0.00,,,0.01,WeatherDisplay:10.37,2014-01-19 21:41:00,
2014-01-19 16:42:00,30.9,22.3,29.75,WSW,254,15.9,19.6,70,0.00,,,0.01,WeatherDisplay:10.37,2014-01-19 21:42:00,
2014-01-19 16:43:00,30.8,22.2,29.75,WSW,252,14.2,19.6,70,0.00,,,0.01,WeatherDisplay:10.37,2014-01-19 21:43:00,
2014-01-19 16:46:00,30.8,22.2,29.75,WSW,244,17.9,23.0,70,0.00,,,0.01,WeatherDisplay:10.37,2014-01-19 21:46:00,
2014-01-19 16:47:00,30.8,21.8,29.75,WSW,241,18.1,23.0,69,0.00,,,0.01,WeatherDisplay:10.37,2014-01-19 21:47:00,
2014-01-19 16:48:00,30.8,22.2,29.76,WSW,251,18.2,26.5,70,0.00,,,0.01,WeatherDisplay:10.37,2014-01-19 21:48:00,
2014-01-19 16:49:00,30.8,22.5,29.75,WSW,255,15.8,21.9,71,0.00,,,0.01,WeatherDisplay:10.37,2014-01-19 21:49:00,
2014-01-19 16:50:00,30.8,22.5,29.75,WSW,246,15.0,27.0,71,0.00,,,0.01,WeatherDisplay:10.37,2014-01-19 21:50:00,
2014-01-19 16:51:00,30.8,22.2,29.75,West,264,12.0,19.6,70,0.00,CLR,,0.01,WeatherDisplay:10.37,2014-01-19 21:51:00,
2014-01-19 16:53:00,30.8,22.2,29.75,WSW,237,19.3,23.0,70,0.00,CLR,,0.01,WeatherDisplay:10.37,2014-01-19 21:53:00,
2014-01-19 16:56:00,30.8,21.8,29.75,WSW,248,17.8,25.3,69,0.00,,,0.01,WeatherDisplay:10.37,2014-01-19 21:56:00,
2014-01-19 16:57:00,30.8,21.8,29.75,WSW,248,15.8,25.3,69,0.00,,,0.01,WeatherDisplay:10.37,2014-01-19 21:57:00,
2014-01-19 16:59:00,30.8,22.2,29.75,West,265,12.8,17.3,70,0.00,,,0.01,WeatherDisplay:10.37,2014-01-19 21:59:00,
2014-01-19 17:00:00,30.8,22.2,29.75,WSW,243,11.0,19.6,70,0.00,,,0.01,WeatherDisplay:10.37,2014-01-19 22:00:00,
2014-01-19 17:02:00,30.7,22.1,29.74,SW,231,13.7,17.0,70,0.00,,,0.01,WeatherDisplay:10.37,2014-01-19 22:02:00,
2014-01-19 17:03:00,30.7,22.1,29.74,WSW,246,15.7,20.7,70,0.00,,,0.01,WeatherDisplay:10.37,2014-01-19 22:03:00,
2014-01-19 17:04:00,30.7,22.1,29.74,SW,236,15.6,21.9,70,0.00,,,0.01,WeatherDisplay:10.37,2014-01-19 22:04:00,
2014-01-19 17:05:00,30.7,21.7,29.74,WSW,239,15.0,19.6,69,0.00,,,0.01,WeatherDisplay:10.37,2014-01-19 22:05:00,
2014-01-19 17:07:00,30.7,21.7,29.74,West,259,14.0,19.6,69,0.00,,,0.01,WeatherDisplay:10.37,2014-01-19 22:07:00,
2014-01-19 17:08:00,30.6,22.0,29.74,WSW,243,11.3,19.6,70,0.00,,,0.01,WeatherDisplay:10.37,2014-01-19 22:08:00,
2014-01-19 17:10:00,30.6,22.0,29.75,SW,232,12.9,19.6,70,0.00,,,0.01,WeatherDisplay:10.37,2014-01-19 22:10:00,
2014-01-19 17:13:00,30.5,21.9,29.74,West,265,13.4,19.6,70,0.00,,,0.01,WeatherDisplay:10.37,2014-01-19 22:13:00,
2014-01-19 17:14:00,30.5,21.9,29.74,WSW,238,9.3,17.3,70,0.00,,,0.01,WeatherDisplay:10.37,2014-01-19 22:14:00,
2014-01-19 17:15:00,30.5,21.9,29.74,SW,233,13.8,19.0,70,0.00,,,0.01,WeatherDisplay:10.37,2014-01-19 22:15:00,
2014-01-19 17:16:00,30.5,21.9,29.74,SW,227,18.4,21.9,70,0.00,,,0.01,WeatherDisplay:10.37,2014-01-19 22:16:00,
2014-01-19 17:20:00,30.4,21.8,29.74,WSW,246,15.6,18.0,70,0.00,,,0.01,WeatherDisplay:10.37,2014-01-19 22:20:00,
2014-01-19 17:21:00,30.4,21.8,29.74,WSW,239,13.0,18.4,70,0.00,,,0.01,WeatherDisplay:10.37,2014-01-19 22:21:00,
2014-01-19 17:24:00,30.3,21.7,29.74,SW,217,13.8,19.6,70,0.00,,,0.01,WeatherDisplay:10.37,2014-01-19 22:24:00,
2014-01-19 17:25:00,30.4,21.8,29.74,WSW,250,14.5,19.6,70,0.00,,,0.01,WeatherDisplay:10.37,2014-01-19 22:25:00,
2014-01-19 17:27:00,30.3,21.7,29.74,SW,224,10.3,12.7,70,0.00,,,0.01,WeatherDisplay:10.37,2014-01-19 22:27:00,
2014-01-19 17:29:00,30.3,21.7,29.74,SW,216,11.1,13.8,70,0.00,,,0.01,WeatherDisplay:10.37,2014-01-19 22:29:00,
2014-01-19 17:30:00,30.3,21.7,29.74,SW,228,11.9,18.4,70,0.00,,,0.01,WeatherDisplay:10.37,2014-01-19 22:30:00,
2014-01-19 17:32:00,30.2,21.9,29.74,WSW,253,11.3,18.4,71,0.00,,,0.01,WeatherDisplay:10.37,2014-01-19 22:32:00,
2014-01-19 17:34:00,30.2,21.6,29.74,WSW,246,12.1,15.0,70,0.00,,,0.01,WeatherDisplay:10.37,2014-01-19 22:34:00,
2014-01-19 17:35:00,30.2,21.6,29.74,WSW,238,15.2,19.6,70,0.00,,,0.01,WeatherDisplay:10.37,2014-01-19 22:35:00,
2014-01-19 17:36:00,30.2,21.9,29.74,WSW,255,17.2,21.9,71,0.00,,,0.01,WeatherDisplay:10.37,2014-01-19 22:36:00,
2014-01-19 17:39:00,30.2,21.9,29.74,WSW,240,15.4,19.6,71,0.00,,,0.01,WeatherDisplay:10.37,2014-01-19 22:39:00,
2014-01-19 17:40:00,30.2,21.9,29.74,SW,223,11.7,15.0,71,0.00,,,0.01,WeatherDisplay:10.37,2014-01-19 22:40:00,
2014-01-19 17:41:00,30.2,21.9,29.74,SW,234,14.3,16.1,71,0.00,,,0.01,WeatherDisplay:10.37,2014-01-19 22:41:00,
2014-01-19 17:42:00,30.2,21.9,29.75,WSW,252,13.2,16.1,71,0.00,,,0.01,WeatherDisplay:10.37,2014-01-19 22:42:00,
2014-01-19 17:43:00,30.2,21.9,29.74,WSW,252,10.8,19.6,71,0.00,,,0.01,WeatherDisplay:10.37,2014-01-19 22:43:00,
2014-01-19 17:45:00,30.2,21.9,29.75,SW,236,12.7,22.0,71,0.00,,,0.01,WeatherDisplay:10.37,2014-01-19 22:45:00,
2014-01-19 17:46:00,30.2,21.9,29.74,SW,226,15.6,19.6,71,0.00,,,0.01,WeatherDisplay:10.37,2014-01-19 22:46:00,
2014-01-19 17:47:00,30.2,21.9,29.75,WSW,239,11.2,19.6,71,0.00,,,0.01,WeatherDisplay:10.37,2014-01-19 22:47:00,
2014-01-19 17:48:00,30.2,21.9,29.74,WSW,238,14.6,19.6,71,0.00,,,0.01,WeatherDisplay:10.37,2014-01-19 22:48:00,
2014-01-19 17:52:00,30.2,21.9,29.75,WSW,246,13.2,21.9,71,0.00,,,0.01,WeatherDisplay:10.37,2014-01-19 22:52:00,
2014-01-19 17:53:00,30.2,21.9,29.75,SW,220,13.9,23.0,71,0.00,,,0.01,WeatherDisplay:10.37,2014-01-19 22:53:00,
2014-01-19 17:54:00,30.2,21.9,29.75,SW,234,12.7,23.0,71,0.00,,,0.01,WeatherDisplay:10.37,2014-01-19 22:54:00,
2014-01-19 17:57:00,30.1,21.8,29.74,WSW,237,16.0,23.0,71,0.00,,,0.01,WeatherDisplay:10.37,2014-01-19 22:57:00,
2014-01-19 17:58:00,30.1,21.8,29.75,WSW,237,14.6,23.0,71,0.00,,,0.01,WeatherDisplay:10.37,2014-01-19 22:58:00,
2014-01-19 17:59:00,30.2,21.9,29.75,SW,225,15.9,21.9,71,0.00,,,0.01,WeatherDisplay:10.37,2014-01-19 22:59:00,
2014-01-19 18:00:00,30.1,21.8,29.75,West,261,14.6,21.9,71,0.00,,,0.01,WeatherDisplay:10.37,2014-01-19 23:00:00,
2014-01-19 18:02:00,30.1,21.8,29.75,WSW,250,13.4,24.2,71,0.00,,,0.01,WeatherDisplay:10.37,2014-01-19 23:02:00,
2014-01-19 18:05:00,30.1,21.8,29.75,WSW,252,13.9,17.3,71,0.00,,,0.01,WeatherDisplay:10.37,2014-01-19 23:05:00,
2014-01-19 18:06:00,30.1,21.8,29.75,SW,219,13.1,18.4,71,0.00,,,0.01,WeatherDisplay:10.37,2014-01-19 23:06:00,
2014-01-19 18:09:00,30.0,21.7,29.75,WSW,247,13.5,23.0,71,0.00,,,0.01,WeatherDisplay:10.37,2014-01-19 23:09:00,
2014-01-19 18:10:00,30.0,21.7,29.75,WSW,249,15.0,24.0,71,0.00,,,0.01,WeatherDisplay:10.37,2014-01-19 23:10:00,
2014-01-19 18:12:00,30.0,21.7,29.75,WSW,256,10.3,18.4,71,0.00,,,0.01,WeatherDisplay:10.37,2014-01-19 23:12:00,
2014-01-19 18:13:00,30.0,21.7,29.75,SW,232,14.1,18.4,71,0.00,,,0.01,WeatherDisplay:10.37,2014-01-19 23:13:00,
2014-01-19 18:16:00,29.9,21.6,29.75,SW,221,12.0,16.1,71,0.00,,,0.01,WeatherDisplay:10.37,2014-01-19 23:16:00,
2014-01-19 18:17:00,29.9,21.6,29.75,SW,234,16.8,23.0,71,0.00,,,0.01,WeatherDisplay:10.37,2014-01-19 23:17:00,
2014-01-19 18:18:00,29.9,21.6,29.75,WSW,241,15.7,23.0,71,0.00,,,0.01,WeatherDisplay:10.37,2014-01-19 23:18:00,
2014-01-19 18:20:00,29.9,21.6,29.75,SW,217,11.6,18.0,71,0.00,,,0.01,WeatherDisplay:10.37,2014-01-19 23:20:00,
2014-01-19 18:21:00,29.9,21.6,29.75,SW,217,14.2,18.4,71,0.00,,,0.01,WeatherDisplay:10.37,2014-01-19 23:21:00,
2014-01-19 18:22:00,29.9,21.6,29.75,West,265,14.7,20.0,71,0.00,,,0.01,WeatherDisplay:10.37,2014-01-19 23:22:00,
2014-01-19 18:23:00,29.9,21.6,29.75,WSW,252,13.1,17.3,71,0.00,,,0.01,WeatherDisplay:10.37,2014-01-19 23:23:00,
2014-01-19 18:25:00,29.9,21.6,29.75,WSW,254,10.8,15.0,71,0.00,,,0.01,WeatherDisplay:10.37,2014-01-19 23:25:00,
2014-01-19 18:26:00,29.8,21.5,29.75,SW,235,14.4,20.0,71,0.00,,,0.01,WeatherDisplay:10.37,2014-01-19 23:26:00,
2014-01-19 18:28:00,29.8,21.5,29.75,WSW,254,14.8,18.4,71,0.00,,,0.01,WeatherDisplay:10.37,2014-01-19 23:28:00,
2014-01-19 18:30:00,29.8,21.5,29.75,WSW,246,13.9,21.0,71,0.00,,,0.01,WeatherDisplay:10.37,2014-01-19 23:30:00,
2014-01-19 18:31:00,29.9,21.6,29.75,SW,228,14.8,18.4,71,0.00,,,0.01,WeatherDisplay:10.37,2014-01-19 23:31:00,
2014-01-19 18:32:00,29.8,21.5,29.75,West,261,12.6,15.0,71,0.00,,,0.01,WeatherDisplay:10.37,2014-01-19 23:32:00,
2014-01-19 18:36:00,29.8,21.9,29.75,WSW,258,12.1,19.6,72,0.00,,,0.01,WeatherDisplay:10.37,2014-01-19 23:36:00,
2014-01-19 18:37:00,29.8,21.5,29.75,SW,235,12.6,19.6,71,0.00,,,0.01,WeatherDisplay:10.37,2014-01-19 23:37:00,
2014-01-19 18:38:00,29.8,21.9,29.75,SW,229,15.2,20.7,72,0.00,,,0.01,WeatherDisplay:10.37,2014-01-19 23:38:00,
2014-01-19 18:40:00,29.8,21.9,29.75,SW,215,10.8,13.8,72,0.00,,,0.01,WeatherDisplay:10.37,2014-01-19 23:40:00,
2014-01-19 18:41:00,29.8,21.9,29.75,West,262,11.2,15.0,72,0.00,,,0.01,WeatherDisplay:10.37,2014-01-19 23:41:00,
2014-01-19 18:43:00,29.8,21.9,29.75,WSW,244,7.5,12.7,72,0.00,,,0.01,WeatherDisplay:10.37,2014-01-19 23:43:00,
2014-01-19 18:44:00,29.7,21.8,29.75,WSW,246,11.3,13.0,72,0.00,,,0.01,WeatherDisplay:10.37,2014-01-19 23:44:00,
2014-01-19 18:45:00,29.7,21.8,29.75,WSW,242,8.8,12.7,72,0.00,,,0.01,WeatherDisplay:10.37,2014-01-19 23:45:00,
2014-01-19 18:46:00,29.7,21.8,29.75,WSW,245,11.6,17.3,72,0.00,,,0.01,WeatherDisplay:10.37,2014-01-19 23:46:00,
2014-01-19 18:47:00,29.6,21.7,29.75,WSW,241,12.6,17.3,72,0.00,,,0.01,WeatherDisplay:10.37,2014-01-19 23:47:00,
2014-01-19 18:49:00,29.6,21.7,29.75,WSW,251,11.5,16.1,72,0.00,,,0.01,WeatherDisplay:10.37,2014-01-19 23:49:00,
2014-01-19 18:50:00,29.6,21.7,29.75,WSW,252,14.5,15.0,72,0.00,,,0.01,WeatherDisplay:10.37,2014-01-19 23:50:00,
2014-01-19 18:52:00,29.6,21.7,29.75,WSW,238,15.5,21.9,72,0.00,,,0.01,WeatherDisplay:10.37,2014-01-19 23:52:00,
2014-01-19 18:53:00,29.6,21.7,29.75,SW,227,15.6,20.7,72,0.00,,,0.01,WeatherDisplay:10.37,2014-01-19 23:53:00,
2014-01-19 18:55:00,29.6,21.7,29.75,SW,224,13.3,19.6,72,0.00,,,0.01,WeatherDisplay:10.37,2014-01-19 23:55:00,
2014-01-19 18:57:00,29.6,21.7,29.75,WSW,238,9.9,13.8,72,0.00,,,0.01,WeatherDisplay:10.37,2014-01-19 23:57:00,
2014-01-19 18:59:00,29.7,21.8,29.75,WSW,240,12.6,18.4,72,0.00,,,0.01,WeatherDisplay:10.37,2014-01-19 23:59:00,
2014-01-19 19:00:00,29.7,21.8,29.75,SW,228,15.3,18.4,72,0.00,CLR,,0.01,WeatherDisplay:10.37,2014-01-20 00:00:00,
2014-01-19 19:01:00,29.6,21.7,29.75,WSW,237,11.3,16.1,72,0.00,,,0.01,WeatherDisplay:10.37,2014-01-20 00:01:00,
2014-01-19 19:02:00,29.6,21.7,29.75,SW,219,9.8,16.1,72,0.00,,,0.01,WeatherDisplay:10.37,2014-01-20 00:02:00,
2014-01-19 19:04:00,29.6,21.7,29.75,SW,231,10.5,16.0,72,0.00,,,0.01,WeatherDisplay:10.37,2014-01-20 00:04:00,
2014-01-19 19:05:00,29.6,21.7,29.75,SW,232,12.6,16.1,72,0.00,,,0.01,WeatherDisplay:10.37,2014-01-20 00:05:00,
2014-01-19 19:07:00,29.6,21.7,29.75,WSW,247,15.7,16.1,72,0.00,,,0.01,WeatherDisplay:10.37,2014-01-20 00:07:00,
2014-01-19 19:08:00,29.6,21.7,29.75,WSW,242,13.8,21.9,72,0.00,,,0.01,WeatherDisplay:10.37,2014-01-20 00:08:00,
2014-01-19 19:09:00,29.6,21.7,29.75,WSW,238,12.5,17.3,72,0.00,,,0.01,WeatherDisplay:10.37,2014-01-20 00:09:00,
2014-01-19 19:10:00,29.6,22.0,29.75,SW,229,12.1,20.7,73,0.00,,,0.01,WeatherDisplay:10.37,2014-01-20 00:10:00,
2014-01-19 19:13:00,29.6,21.7,29.75,SW,215,8.1,11.5,72,0.00,,,0.01,WeatherDisplay:10.37,2014-01-20 00:13:00,
2014-01-19 19:14:00,29.6,21.7,29.75,SW,233,8.9,11.5,72,0.00,,,0.01,WeatherDisplay:10.37,2014-01-20 00:14:00,
2014-01-19 19:15:00,29.5,21.9,29.75,WSW,246,11.0,13.8,73,0.00,,,0.01,WeatherDisplay:10.37,2014-01-20 00:15:00,
2014-01-19 19:16:00,29.5,21.6,29.75,WSW,252,9.3,11.5,72,0.00,,,0.01,WeatherDisplay:10.37,2014-01-20 00:16:00,
2014-01-19 19:19:00,29.5,21.9,29.75,West,263,14.4,18.4,73,0.00,,,0.01,WeatherDisplay:10.37,2014-01-20 00:19:00,
2014-01-19 19:20:00,29.4,21.8,29.75,WSW,251,13.7,18.4,73,0.00,,,0.01,WeatherDisplay:10.37,2014-01-20 00:20:00,
2014-01-19 19:21:00,29.5,21.9,29.75,SW,236,10.2,12.7,73,0.00,,,0.01,WeatherDisplay:10.37,2014-01-20 00:21:00,
2014-01-19 19:25:00,29.4,21.8,29.75,WSW,248,12.0,15.0,73,0.00,,,0.01,WeatherDisplay:10.37,2014-01-20 00:25:00,
2014-01-19 19:26:00,29.4,21.8,29.75,SW,225,12.7,16.1,73,0.00,,,0.01,WeatherDisplay:10.37,2014-01-20 00:26:00,
2014-01-19 19:27:00,29.4,21.8,29.75,SW,235,12.2,16.1,73,0.00,,,0.01,WeatherDisplay:10.37,2014-01-20 00:27:00,
2014-01-19 19:30:00,29.4,21.8,29.75,SW,228,13.8,17.3,73,0.00,,,0.01,WeatherDisplay:10.37,2014-01-20 00:30:00,
2014-01-19 19:31:00,29.4,21.8,29.75,WSW,251,14.3,19.6,73,0.00,,,0.01,WeatherDisplay:10.37,2014-01-20 00:31:00,
2014-01-19 19:33:00,29.4,21.8,29.75,WSW,240,11.9,15.0,73,0.00,,,0.01,WeatherDisplay:10.37,2014-01-20 00:33:00,
2014-01-19 19:35:00,29.4,21.8,29.75,WSW,249,9.8,13.8,73,0.00,,,0.01,WeatherDisplay:10.37,2014-01-20 00:35:00,
2014-01-19 19:36:00,29.4,21.8,29.75,WSW,243,9.1,11.5,73,0.00,,,0.01,WeatherDisplay:10.37,2014-01-20 00:36:00,
2014-01-19 19:38:00,29.3,21.7,29.75,West,265,14.2,16.1,73,0.00,,,0.01,WeatherDisplay:10.37,2014-01-20 00:38:00,
2014-01-19 19:41:00,29.3,21.7,29.74,SSW,208,10.1,13.8,73,0.00,,,0.01,WeatherDisplay:10.37,2014-01-20 00:41:00,
2014-01-19 19:42:00,29.3,21.7,29.74,SW,223,13.7,15.0,73,0.00,,,0.01,WeatherDisplay:10.37,2014-01-20 00:42:00,
2014-01-19 19:43:00,29.3,21.7,29.75,WSW,250,11.8,19.6,73,0.00,,,0.01,WeatherDisplay:10.37,2014-01-20 00:43:00,
2014-01-19 19:44:00,29.3,21.7,29.75,WSW,248,8.9,12.7,73,0.00,,,0.01,WeatherDisplay:10.37,2014-01-20 00:44:00,
2014-01-19 19:46:00,29.3,21.7,29.74,WSW,242,8.4,11.5,73,0.00,,,0.01,WeatherDisplay:10.37,2014-01-20 00:46:00,
2014-01-19 19:47:00,29.3,21.7,29.74,SW,223,14.6,18.0,73,0.00,,,0.01,WeatherDisplay:10.37,2014-01-20 00:47:00,
2014-01-19 19:48:00,29.3,21.7,29.74,West,277,11.8,20.7,73,0.00,,,0.01,WeatherDisplay:10.37,2014-01-20 00:48:00,
2014-01-19 19:50:00,29.4,21.8,29.74,WSW,248,11.1,15.0,73,0.00,,,0.01,WeatherDisplay:10.37,2014-01-20 00:50:00,
2014-01-19 19:52:00,29.4,21.8,29.74,WSW,246,12.6,16.1,73,0.00,,,0.01,WeatherDisplay:10.37,2014-01-20 00:52:00,
2014-01-19 19:53:00,29.4,21.8,29.74,West,271,9.2,16.1,73,0.00,,,0.01,WeatherDisplay:10.37,2014-01-20 00:53:00,
2014-01-19 19:55:00,29.4,21.8,29.74,WSW,240,10.0,13.8,73,0.00,,,0.01,WeatherDisplay:10.37,2014-01-20 00:55:00,
2014-01-19 19:57:00,29.3,21.7,29.74,SW,221,10.5,14.0,73,0.00,,,0.01,WeatherDisplay:10.37,2014-01-20 00:57:00,
2014-01-19 19:58:00,29.3,21.7,29.74,SW,234,10.8,13.8,73,0.00,,,0.01,WeatherDisplay:10.37,2014-01-20 00:58:00,
2014-01-19 19:59:00,29.3,21.7,29.74,SW,236,9.3,12.7,73,0.00,,,0.01,WeatherDisplay:10.37,2014-01-20 00:59:00,
2014-01-19 20:03:00,29.3,21.7,29.75,WSW,237,8.6,12.7,73,0.00,,,0.01,WeatherDisplay:10.37,2014-01-20 01:03:00,
2014-01-19 20:04:00,29.3,21.7,29.74,WSW,244,9.2,12.7,73,0.00,,,0.01,WeatherDisplay:10.37,2014-01-20 01:04:00,
2014-01-19 20:06:00,29.3,21.7,29.75,WSW,249,9.7,15.0,73,0.00,,,0.01,WeatherDisplay:10.37,2014-01-20 01:06:00,
2014-01-19 20:08:00,29.3,21.7,29.75,SW,232,7.8,12.7,73,0.00,,,0.01,WeatherDisplay:10.37,2014-01-20 01:08:00,
2014-01-19 20:09:00,29.3,21.7,29.75,WSW,250,7.9,10.4,73,0.00,,,0.01,WeatherDisplay:10.37,2014-01-20 01:09:00,
2014-01-19 20:10:00,29.3,21.7,29.75,WSW,255,11.5,15.0,73,0.00,,,0.01,WeatherDisplay:10.37,2014-01-20 01:10:00,
2014-01-19 20:15:00,29.4,21.8,29.74,WSW,247,8.1,12.0,73,0.00,,,0.01,WeatherDisplay:10.37,2014-01-20 01:15:00,
2014-01-19 20:16:00,29.4,21.8,29.74,SW,228,12.3,16.1,73,0.00,,,0.01,WeatherDisplay:10.37,2014-01-20 01:16:00,
2014-01-19 20:17:00,29.4,21.8,29.74,SW,224,8.6,16.1,73,0.00,,,0.01,WeatherDisplay:10.37,2014-01-20 01:17:00,
2014-01-19 20:18:00,29.3,21.7,29.74,WSW,253,9.9,13.8,73,0.00,,,0.01,WeatherDisplay:10.37,2014-01-20 01:18:00,
2014-01-19 20:21:00,29.4,21.8,29.74,SW,228,9.3,11.5,73,0.00,,,0.01,WeatherDisplay:10.37,2014-01-20 01:21:00,
2014-01-19 20:23:00,29.3,21.7,29.74,WSW,240,10.1,11.5,73,0.00,,,0.01,WeatherDisplay:10.37,2014-01-20 01:23:00,
2014-01-19 20:26:00,29.4,21.8,29.74,SW,233,10.3,13.8,73,0.00,,,0.01,WeatherDisplay:10.37,2014-01-20 01:26:00,
2014-01-19 20:28:00,29.4,21.8,29.75,WSW,239,9.7,11.5,73,0.00,,,0.01,WeatherDisplay:10.37,2014-01-20 01:28:00,
2014-01-19 20:30:00,29.4,21.8,29.74,SW,231,9.3,12.7,73,0.00,,,0.01,WeatherDisplay:10.37,2014-01-20 01:30:00,
2014-01-19 20:31:00,29.4,21.8,29.74,WSW,251,7.7,11.5,73,0.00,,,0.01,WeatherDisplay:10.37,2014-01-20 01:31:00,
2014-01-19 20:33:00,29.4,21.8,29.74,SW,232,11.0,11.0,73,0.00,,,0.01,WeatherDisplay:10.37,2014-01-20 01:33:00,
2014-01-19 20:35:00,29.4,21.8,29.73,SW,227,10.2,11.5,73,0.00,,,0.01,WeatherDisplay:10.37,2014-01-20 01:35:00,
2014-01-19 20:36:00,29.4,21.8,29.73,WSW,242,9.2,12.7,73,0.00,,,0.01,WeatherDisplay:10.37,2014-01-20 01:36:00,
2014-01-19 20:37:00,29.4,21.8,29.73,SSW,210,8.8,12.7,73,0.00,,,0.01,WeatherDisplay:10.37,2014-01-20 01:37:00,
2014-01-19 20:38:00,29.4,21.8,29.73,WSW,238,7.7,11.5,73,0.00,CLR,,0.01,WeatherDisplay:10.37,2014-01-20 01:38:00,
2014-01-19 20:39:00,29.4,21.8,29.73,SW,222,7.9,11.5,73,0.00,CLR,,0.01,WeatherDisplay:10.37,2014-01-20 01:39:00,
2014-01-19 20:42:00,29.4,21.8,29.73,SW,222,7.2,9.2,73,0.00,,,0.01,WeatherDisplay:10.37,2014-01-20 01:42:00,
2014-01-19 20:43:00,29.3,21.7,29.73,SW,229,7.6,10.4,73,0.00,,,0.01,WeatherDisplay:10.37,2014-01-20 01:43:00,
2014-01-19 20:45:00,29.3,21.7,29.73,SW,233,8.5,12.7,73,0.00,,,0.01,WeatherDisplay:10.37,2014-01-20 01:45:00,
2014-01-19 20:46:00,29.3,21.7,29.73,WSW,250,7.6,10.4,73,0.00,,,0.01,WeatherDisplay:10.37,2014-01-20 01:46:00,
2014-01-19 20:48:00,29.2,21.6,29.73,SW,230,6.1,8.1,73,0.00,,,0.01,WeatherDisplay:10.37,2014-01-20 01:48:00,
2014-01-19 20:50:00,29.2,21.6,29.73,SW,236,11.4,12.7,73,0.00,,,0.01,WeatherDisplay:10.37,2014-01-20 01:50:00,
2014-01-19 20:51:00,29.2,21.6,29.74,SW,229,11.0,13.8,73,0.00,,,0.01,WeatherDisplay:10.37,2014-01-20 01:51:00,
2014-01-19 20:55:00,29.2,21.6,29.74,WSW,251,9.6,9.6,73,0.00,,,0.01,WeatherDisplay:10.37,2014-01-20 01:55:00,
2014-01-19 20:56:00,29.2,21.6,29.74,WSW,248,9.4,12.7,73,0.00,,,0.01,WeatherDisplay:10.37,2014-01-20 01:56:00,
2014-01-19 20:58:00,29.2,21.6,29.73,SSW,213,8.5,13.0,73,0.00,,,0.01,WeatherDisplay:10.37,2014-01-20 01:58:00,
2014-01-19 20:59:00,29.2,21.6,29.73,WSW,242,10.5,12.7,73,0.00,,,0.01,WeatherDisplay:10.37,2014-01-20 01:59:00,
2014-01-19 21:00:00,29.2,21.6,29.73,WSW,246,10.3,12.7,73,0.00,,,0.01,WeatherDisplay:10.37,2014-01-20 02:00:00,
2014-01-19 21:01:00,29.2,21.6,29.73,SW,236,9.9,12.7,73,0.00,,,0.01,WeatherDisplay:10.37,2014-01-20 02:01:00,
2014-01-19 21:04:00,29.2,21.6,29.73,SW,228,8.8,13.0,73,0.00,,,0.01,WeatherDisplay:10.37,2014-01-20 02:04:00,
2014-01-19 21:05:00,29.2,21.6,29.73,SSW,213,10.8,12.7,73,0.00,,,0.01,WeatherDisplay:10.37,2014-01-20 02:05:00,
2014-01-19 21:06:00,29.2,21.6,29.73,SW,233,9.5,11.5,73,0.00,,,0.01,WeatherDisplay:10.37,2014-01-20 02:06:00,
2014-01-19 21:09:00,29.2,21.6,29.73,SW,223,7.3,10.4,73,0.00,,,0.01,WeatherDisplay:10.37,2014-01-20 02:09:00,
2014-01-19 21:10:00,29.2,21.6,29.73,SW,232,7.8,10.4,73,0.00,,,0.01,WeatherDisplay:10.37,2014-01-20 02:10:00,
2014-01-19 21:11:00,29.2,21.6,29.73,SSW,202,9.0,9.2,73,0.00,,,0.01,WeatherDisplay:10.37,2014-01-20 02:11:00,
2014-01-19 21:12:00,29.2,21.6,29.73,SW,229,10.7,13.8,73,0.00,,,0.01,WeatherDisplay:10.37,2014-01-20 02:12:00,
2014-01-19 21:13:00,29.2,21.6,29.73,WSW,245,9.5,13.8,73,0.00,,,0.01,WeatherDisplay:10.37,2014-01-20 02:13:00,
2014-01-19 21:15:00,29.2,21.6,29.73,SW,216,8.2,10.4,73,0.00,,,0.01,WeatherDisplay:10.37,2014-01-20 02:15:00,
2014-01-19 21:16:00,29.2,21.6,29.73,SW,234,6.8,8.1,73,0.00,,,0.01,WeatherDisplay:10.37,2014-01-20 02:16:00,
2014-01-19 21:17:00,29.2,21.6,29.73,SW,226,9.7,11.5,73,0.00,,,0.01,WeatherDisplay:10.37,2014-01-20 02:17:00,
2014-01-19 21:20:00,29.2,21.6,29.73,SW,235,7.1,8.1,73,0.00,,,0.01,WeatherDisplay:10.37,2014-01-20 02:20:00,
2014-01-19 21:22:00,29.2,21.6,29.73,WSW,237,8.0,8.1,73,0.00,,,0.01,WeatherDisplay:10.37,2014-01-20 02:22:00,
2014-01-19 21:23:00,29.2,21.6,29.73,SW,233,7.7,8.1,73,0.00,,,0.01,WeatherDisplay:10.37,2014-01-20 02:23:00,
2014-01-19 21:26:00,29.2,21.6,29.73,SW,235,8.3,12.7,73,0.00,,,0.01,WeatherDisplay:10.37,2014-01-20 02:26:00,
2014-01-19 21:27:00,29.2,21.6,29.73,SW,230,9.6,12.7,73,0.00,,,0.01,WeatherDisplay:10.37,2014-01-20 02:27:00,
2014-01-19 21:28:00,29.2,21.6,29.73,SW,234,10.5,11.5,73,0.00,,,0.01,WeatherDisplay:10.37,2014-01-20 02:28:00,
2014-01-19 21:30:00,29.2,21.6,29.73,SW,219,10.4,12.7,73,0.00,,,0.01,WeatherDisplay:10.37,2014-01-20 02:30:00,
2014-01-19 21:31:00,29.2,21.6,29.73,SSW,202,8.3,11.5,73,0.00,,,0.01,WeatherDisplay:10.37,2014-01-20 02:31:00,
2014-01-19 21:32:00,29.2,21.6,29.73,SW,230,9.6,13.0,73,0.00,,,0.01,WeatherDisplay:10.37,2014-01-20 02:32:00,
2014-01-19 21:33:00,29.2,21.6,29.73,WSW,244,9.3,15.0,73,0.00,,,0.01,WeatherDisplay:10.37,2014-01-20 02:33:00,
2014-01-19 21:35:00,29.2,21.6,29.73,WSW,244,10.3,11.5,73,0.00,,,0.01,WeatherDisplay:10.37,2014-01-20 02:35:00,
2014-01-19 21:36:00,29.3,21.7,29.73,SW,236,9.1,11.5,73,0.00,CLR,,0.01,WeatherDisplay:10.37,2014-01-20 02:36:00,
2014-01-19 21:37:00,29.3,21.7,29.74,WSW,253,11.5,13.8,73,0.00,,,0.01,WeatherDisplay:10.37,2014-01-20 02:37:00,
2014-01-19 21:39:00,29.3,21.7,29.73,SW,229,7.2,11.5,73,0.00,,,0.01,WeatherDisplay:10.37,2014-01-20 02:39:00,
2014-01-19 21:40:00,29.3,21.7,29.74,WSW,237,6.9,8.1,73,0.00,,,0.01,WeatherDisplay:10.37,2014-01-20 02:40:00,
2014-01-19 21:42:00,29.3,21.7,29.73,SW,222,8.7,13.0,73,0.00,,,0.01,WeatherDisplay:10.37,2014-01-20 02:42:00,
2014-01-19 21:43:00,29.3,21.7,29.73,SW,231,9.3,12.7,73,0.00,,,0.01,WeatherDisplay:10.37,2014-01-20 02:43:00,
2014-01-19 21:44:00,29.3,21.7,29.73,WSW,250,10.3,15.0,73,0.00,,,0.01,WeatherDisplay:10.37,2014-01-20 02:44:00,
2014-01-19 21:45:00,29.4,21.8,29.73,SW,234,8.7,15.0,73,0.00,,,0.01,WeatherDisplay:10.37,2014-01-20 02:45:00,
2014-01-19 21:47:00,29.3,21.7,29.74,SW,234,10.0,12.7,73,0.00,,,0.01,WeatherDisplay:10.37,2014-01-20 02:47:00,
2014-01-19 21:48:00,29.4,21.8,29.74,SW,227,9.0,11.5,73,0.00,,,0.01,WeatherDisplay:10.37,2014-01-20 02:48:00,
2014-01-19 21:49:00,29.3,21.7,29.74,SW,229,8.2,11.5,73,0.00,,,0.01,WeatherDisplay:10.37,2014-01-20 02:49:00,
2014-01-19 21:50:00,29.3,21.7,29.74,WSW,242,8.9,12.7,73,0.00,,,0.01,WeatherDisplay:10.37,2014-01-20 02:50:00,
2014-01-19 21:51:00,29.3,21.7,29.74,WSW,237,8.0,10.4,73,0.00,,,0.01,WeatherDisplay:10.37,2014-01-20 02:51:00,
2014-01-19 21:53:00,29.3,21.7,29.73,SSW,213,6.1,8.1,73,0.00,,,0.01,WeatherDisplay:10.37,2014-01-20 02:53:00,
2014-01-19 21:55:00,29.3,21.7,29.74,SSW,213,7.0,9.2,73,0.00,,,0.01,WeatherDisplay:10.37,2014-01-20 02:55:00,
2014-01-19 21:57:00,29.2,21.6,29.73,SW,220,6.3,8.1,73,0.00,,,0.01,WeatherDisplay:10.37,2014-01-20 02:57:00,
2014-01-19 22:00:00,29.2,21.6,29.73,SW,230,7.6,8.1,73,0.00,,,0.01,WeatherDisplay:10.37,2014-01-20 03:00:00,
2014-01-19 22:01:00,29.2,21.9,29.73,SW,226,9.1,11.5,74,0.00,,,0.01,WeatherDisplay:10.37,2014-01-20 03:01:00,
2014-01-19 22:02:00,29.2,21.9,29.73,WSW,244,9.2,11.5,74,0.00,,,0.01,WeatherDisplay:10.37,2014-01-20 03:02:00,
2014-01-19 22:03:00,29.2,21.9,29.73,SW,230,7.9,10.4,74,0.00,,,0.01,WeatherDisplay:10.37,2014-01-20 03:03:00,
2014-01-19 22:05:00,29.2,21.9,29.72,SW,228,6.3,9.2,74,0.00,,,0.01,WeatherDisplay:10.37,2014-01-20 03:05:00,
2014-01-19 22:07:00,29.1,21.8,29.73,SW,223,8.7,11.5,74,0.00,,,0.01,WeatherDisplay:10.37,2014-01-20 03:07:00,
2014-01-19 22:08:00,29.1,21.8,29.73,SW,236,8.1,11.5,74,0.00,,,0.01,WeatherDisplay:10.37,2014-01-20 03:08:00,
2014-01-19 22:09:00,29.2,21.9,29.74,WSW,249,7.6,11.5,74,0.00,,,0.01,WeatherDisplay:10.37,2014-01-20 03:09:00,
2014-01-19 22:10:00,29.2,21.9,29.73,SW,227,8.0,12.0,74,0.00,,,0.01,WeatherDisplay:10.37,2014-01-20 03:10:00,
2014-01-19 22:13:00,29.3,22.0,29.73,WSW,239,7.9,11.5,74,0.00,,,0.01,WeatherDisplay:10.37,2014-01-20 03:13:00,
2014-01-19 22:14:00,29.3,22.0,29.73,SW,227,5.7,8.1,74,0.00,,,0.01,WeatherDisplay:10.37,2014-01-20 03:14:00,
2014-01-19 22:15:00,29.3,22.0,29.73,SW,227,6.8,7.0,74,0.00,,,0.01,WeatherDisplay:10.37,2014-01-20 03:15:00,
2014-01-19 22:17:00,29.3,22.0,29.73,SW,223,7.9,9.0,74,0.00,,,0.01,WeatherDisplay:10.37,2014-01-20 03:17:00,
2014-01-19 22:18:00,29.3,22.0,29.74,SW,236,8.1,10.4,74,0.00,,,0.01,WeatherDisplay:10.37,2014-01-20 03:18:00,
2014-01-19 22:19:00,29.3,22.0,29.74,WSW,240,7.8,10.4,74,0.00,,,0.01,WeatherDisplay:10.37,2014-01-20 03:19:00,
2014-01-19 22:20:00,29.3,22.0,29.73,SW,236,8.5,9.2,74,0.00,,,0.01,WeatherDisplay:10.37,2014-01-20 03:20:00,
2014-01-19 22:22:00,29.3,22.0,29.73,WSW,248,8.4,11.5,74,0.00,,,0.01,WeatherDisplay:10.37,2014-01-20 03:22:00,
2014-01-19 22:23:00,29.3,22.0,29.73,WSW,240,8.2,11.5,74,0.00,,,0.01,WeatherDisplay:10.37,2014-01-20 03:23:00,
2014-01-19 22:24:00,29.3,22.0,29.74,SW,234,7.2,10.4,74,0.00,,,0.01,WeatherDisplay:10.37,2014-01-20 03:24:00,
2014-01-19 22:27:00,29.3,22.0,29.74,WSW,254,7.0,9.2,74,0.00,,,0.01,WeatherDisplay:10.37,2014-01-20 03:27:00,
2014-01-19 22:28:00,29.3,22.0,29.74,WSW,242,8.2,9.2,74,0.00,,,0.01,WeatherDisplay:10.37,2014-01-20 03:28:00,
2014-01-19 22:29:00,29.3,22.0,29.74,SW,227,7.6,10.4,74,0.00,,,0.01,WeatherDisplay:10.37,2014-01-20 03:29:00,
2014-01-19 22:30:00,29.4,22.1,29.74,SW,236,8.0,12.0,74,0.00,,,0.01,WeatherDisplay:10.37,2014-01-20 03:30:00,
2014-01-19 22:33:00,29.4,22.1,29.74,SW,226,6.9,9.2,74,0.00,,,0.01,WeatherDisplay:10.37,2014-01-20 03:33:00,
2014-01-19 22:35:00,29.4,22.1,29.74,SW,215,7.2,9.2,74,0.00,,,0.01,WeatherDisplay:10.37,2014-01-20 03:35:00,
2014-01-19 22:36:00,29.3,22.0,29.74,SW,228,8.0,10.4,74,0.00,,,0.01,WeatherDisplay:10.37,2014-01-20 03:36:00,
2014-01-19 22:38:00,29.3,22.4,29.73,WSW,248,7.1,9.2,75,0.00,,,0.01,WeatherDisplay:10.37,2014-01-20 03:38:00,
2014-01-19 22:39:00,29.3,22.4,29.73,SSW,203,6.3,10.0,75,0.00,,,0.01,WeatherDisplay:10.37,2014-01-20 03:39:00,
2014-01-19 22:40:00,29.3,22.4,29.73,SW,216,7.7,11.5,75,0.00,,,0.01,WeatherDisplay:10.37,2014-01-20 03:40:00,
2014-01-19 22:42:00,29.3,22.4,29.74,SW,235,6.8,11.5,75,0.00,,,0.01,WeatherDisplay:10.37,2014-01-20 03:42:00,
2014-01-19 22:44:00,29.4,22.5,29.73,SW,229,8.4,11.5,75,0.00,,,0.01,WeatherDisplay:10.37,2014-01-20 03:44:00,
2014-01-19 22:45:00,29.4,22.5,29.73,WSW,247,8.7,11.5,75,0.00,,,0.01,WeatherDisplay:10.37,2014-01-20 03:45:00,
2014-01-19 22:47:00,29.4,22.5,29.74,SW,233,6.0,11.5,75,0.00,,,0.01,WeatherDisplay:10.37,2014-01-20 03:47:00,
2014-01-19 22:48:00,29.4,22.5,29.74,SW,233,6.1,9.2,75,0.00,,,0.01,WeatherDisplay:10.37,2014-01-20 03:48:00,
2014-01-19 22:49:00,29.4,22.5,29.74,SW,221,7.4,9.0,75,0.00,,,0.01,WeatherDisplay:10.37,2014-01-20 03:49:00,
2014-01-19 22:51:00,29.4,22.5,29.74,SW,232,7.9,11.5,75,0.00,,,0.01,WeatherDisplay:10.37,2014-01-20 03:51:00,
2014-01-19 22:52:00,29.5,22.6,29.74,SW,229,9.0,11.5,75,0.00,,,0.01,WeatherDisplay:10.37,2014-01-20 03:52:00,
2014-01-19 22:53:00,29.5,22.6,29.74,WSW,242,10.4,12.7,75,0.00,,,0.01,WeatherDisplay:10.37,2014-01-20 03:53:00,
2014-01-19 22:55:00,29.6,22.6,29.73,WSW,244,6.4,9.0,75,0.00,,,0.01,WeatherDisplay:10.37,2014-01-20 03:55:00,
2014-01-19 22:56:00,29.6,22.6,29.73,WSW,242,8.1,11.5,75,0.00,,,0.01,WeatherDisplay:10.37,2014-01-20 03:56:00,
2014-01-19 22:58:00,29.6,22.6,29.73,SSW,210,7.6,11.5,75,0.00,,,0.01,WeatherDisplay:10.37,2014-01-20 03:58:00,
2014-01-19 23:00:00,29.6,22.6,29.73,WSW,250,9.6,15.0,75,0.00,,,0.01,WeatherDisplay:10.37,2014-01-20 04:00:00,
2014-01-19 23:01:00,29.6,22.6,29.73,SW,228,8.1,11.5,75,0.00,,,0.01,WeatherDisplay:10.37,2014-01-20 04:01:00,
2014-01-19 23:02:00,29.6,22.6,29.73,SSW,207,9.2,11.5,75,0.00,,,0.01,WeatherDisplay:10.37,2014-01-20 04:02:00,
2014-01-19 23:03:00,29.7,22.7,29.73,West,266,9.0,12.7,75,0.00,,,0.01,WeatherDisplay:10.37,2014-01-20 04:03:00,
2014-01-19 23:05:00,29.7,22.7,29.73,SW,226,8.0,12.7,75,0.00,,,0.01,WeatherDisplay:10.37,2014-01-20 04:05:00,
2014-01-19 23:06:00,29.7,22.4,29.73,SW,225,10.1,13.8,74,0.00,,,0.01,WeatherDisplay:10.37,2014-01-20 04:06:00,
2014-01-19 23:07:00,29.7,22.4,29.73,WSW,237,10.9,13.8,74,0.00,,,0.01,WeatherDisplay:10.37,2014-01-20 04:07:00,
2014-01-19 23:08:00,29.7,22.4,29.73,SW,227,9.7,14.0,74,0.00,,,0.01,WeatherDisplay:10.37,2014-01-20 04:08:00,
2014-01-19 23:11:00,29.8,22.5,29.73,SW,235,9.4,15.0,74,0.00,,,0.01,WeatherDisplay:10.37,2014-01-20 04:11:00,
2014-01-19 23:12:00,29.8,22.5,29.73,WSW,241,7.3,15.0,74,0.00,,,0.01,WeatherDisplay:10.37,2014-01-20 04:12:00,
2014-01-19 23:13:00,29.8,22.5,29.73,SW,228,7.1,9.2,74,0.00,,,0.01,WeatherDisplay:10.37,2014-01-20 04:13:00,
2014-01-19 23:14:00,29.8,22.5,29.73,SW,215,9.0,11.5,74,0.00,,,0.01,WeatherDisplay:10.37,2014-01-20 04:14:00,
2014-01-19 23:17:00,29.8,22.5,29.72,SW,222,5.9,9.0,74,0.00,,,0.01,WeatherDisplay:10.37,2014-01-20 04:17:00,
2014-01-19 23:18:00,29.8,22.5,29.72,SW,222,7.1,10.4,74,0.00,,,0.01,WeatherDisplay:10.37,2014-01-20 04:18:00,
2014-01-19 23:19:00,29.8,22.5,29.72,WSW,240,6.5,10.4,74,0.00,,,0.01,WeatherDisplay:10.37,2014-01-20 04:19:00,
2014-01-19 23:20:00,29.7,22.4,29.72,WSW,241,6.1,8.1,74,0.00,,,0.01,WeatherDisplay:10.37,2014-01-20 04:20:00,
2014-01-19 23:22:00,29.7,22.7,29.72,SW,236,7.9,10.4,75,0.00,,,0.01,WeatherDisplay:10.37,2014-01-20 04:22:00,
2014-01-19 23:23:00,29.7,22.7,29.72,SW,217,7.2,10.4,75,0.00,,,0.01,WeatherDisplay:10.37,2014-01-20 04:23:00,
2014-01-19 23:24:00,29.7,22.7,29.72,SW,215,8.6,10.4,75,0.00,,,0.01,WeatherDisplay:10.37,2014-01-20 04:24:00,
2014-01-19 23:25:00,29.7,22.7,29.72,SW,225,7.1,11.5,75,0.00,,,0.01,WeatherDisplay:10.37,2014-01-20 04:25:00,
2014-01-19 23:28:00,29.7,22.7,29.72,SSW,213,7.4,15.0,75,0.00,,,0.01,WeatherDisplay:10.37,2014-01-20 04:28:00,
2014-01-19 23:29:00,29.7,22.7,29.72,SW,226,9.1,11.5,75,0.00,,,0.01,WeatherDisplay:10.37,2014-01-20 04:29:00,
2014-01-19 23:30:00,29.8,22.8,29.72,SW,235,7.3,11.5,75,0.00,,,0.01,WeatherDisplay:10.37,2014-01-20 04:30:00,
2014-01-19 23:31:00,29.8,22.8,29.72,SSW,202,8.1,10.4,75,0.00,,,0.01,WeatherDisplay:10.37,2014-01-20 04:31:00,
2014-01-19 23:33:00,29.8,22.8,29.72,SW,223,8.4,13.8,75,0.00,,,0.01,WeatherDisplay:10.37,2014-01-20 04:33:00,
2014-01-19 23:35:00,29.8,22.8,29.72,SW,235,9.6,11.5,75,0.00,,,0.01,WeatherDisplay:10.37,2014-01-20 04:35:00,
2014-01-19 23:37:00,29.9,22.9,29.72,SW,234,9.3,11.5,75,0.00,,,0.01,WeatherDisplay:10.37,2014-01-20 04:37:00,
2014-01-19 23:38:00,29.9,22.9,29.72,SW,235,10.8,12.7,75,0.00,,,0.01,WeatherDisplay:10.37,2014-01-20 04:38:00,
2014-01-19 23:40:00,29.9,22.9,29.72,WSW,237,9.7,12.7,75,0.00,,,0.01,WeatherDisplay:10.37,2014-01-20 04:40:00,
2014-01-19 23:41:00,29.9,22.9,29.72,SSW,209,7.9,10.0,75,0.00,,,0.01,WeatherDisplay:10.37,2014-01-20 04:41:00,
2014-01-19 23:44:00,30.0,23.0,29.72,SW,230,8.6,15.0,75,0.00,,,0.01,WeatherDisplay:10.37,2014-01-20 04:44:00,
2014-01-19 23:45:00,30.1,23.1,29.72,SW,232,8.6,15.0,75,0.00,,,0.01,WeatherDisplay:10.37,2014-01-20 04:45:00,
2014-01-19 23:47:00,30.1,23.1,29.71,SW,221,9.5,11.5,75,0.00,,,0.01,WeatherDisplay:10.37,2014-01-20 04:47:00,
2014-01-19 23:48:00,30.1,23.1,29.71,SW,220,8.8,11.5,75,0.00,,,0.01,WeatherDisplay:10.37,2014-01-20 04:48:00,
2014-01-19 23:50:00,30.1,23.1,29.71,SW,232,10.2,16.0,75,0.00,,,0.01,WeatherDisplay:10.37,2014-01-20 04:50:00,
2014-01-19 23:51:00,30.2,23.2,29.72,SW,234,9.2,13.8,75,0.00,,,0.01,WeatherDisplay:10.37,2014-01-20 04:51:00,
2014-01-19 23:52:00,30.2,23.2,29.71,WSW,248,11.1,13.8,75,0.00,,,0.01,WeatherDisplay:10.37,2014-01-20 04:52:00,
2014-01-19 23:53:00,30.2,23.2,29.71,WSW,237,8.5,11.5,75,0.00,,,0.01,WeatherDisplay:10.37,2014-01-20 04:53:00,
2014-01-19 23:55:00,30.2,23.2,29.71,SW,232,9.7,15.0,75,0.00,,,0.01,WeatherDisplay:10.37,2014-01-20 04:55:00,
2014-01-19 23:57:00,30.3,23.3,29.71,SW,225,10.0,18.4,75,0.00,,,0.01,WeatherDisplay:10.37,2014-01-20 04:57:00,
2014-01-19 23:58:00,30.3,23.3,29.71,SSW,212,11.5,15.0,75,0.00,,,0.01,WeatherDisplay:10.37,2014-01-20 04:58:00,
2014-01-19 23:59:00,30.3,23.3,29.71,SW,221,11.4,16.1,75,0.00,CLR,,0.01,WeatherDisplay:10.37,2014-01-20 04:59:00,